Observation data for Lesley on 02/14/2020      Previous  Date  Next       Current Mesonet Observations  Soil Data  Daily Summary Page  Observations in Plain Language
KLE1 140600Z 10012KT M04/M10 A3037 RMK A01 T10431099  RH  065%=      5-min Rain = 0
KLE1 140601Z 10012KT M04/M10 A3037 RMK A01 T10441101  RH  064%=      5-min Rain = 0
KLE1 140602Z 10012KT M04/M10 A3037 RMK A01 T10431102  RH  063%=      5-min Rain = 0
KLE1 140603Z 10010KT M04/M10 A3037 RMK A01 T10441103  RH  063%=      5-min Rain = 0
KLE1 140604Z 10011KT M04/M10 A3037 RMK A01 T10431102  RH  064%=      5-min Rain = 0
KLE1 140605Z 10011KT M04/M10 A3037 RMK A01 T10431101  RH  064%=      5-min Rain = 0
KLE1 140606Z 10011KT M04/M10 A3037 RMK A01 T10441101  RH  064%=      5-min Rain = 0
KLE1 140607Z 10011KT M04/M10 A3037 RMK A01 T10441102  RH  064%=      5-min Rain = 0
KLE1 140608Z 10010KT M04/M10 A3037 RMK A01 T10441102  RH  064%=      5-min Rain = 0
KLE1 140609Z 10010KT M04/M10 A3037 RMK A01 T10441101  RH  065%=      5-min Rain = 0
KLE1 140610Z 10011KT M04/M10 A3037 RMK A01 T10441101  RH  065%=      5-min Rain = 0
KLE1 140611Z 10011KT M04/M10 A3037 RMK A01 T10441101  RH  065%=      5-min Rain = 0
KLE1 140612Z 10011KT M04/M10 A3037 RMK A01 T10441101  RH  064%=      5-min Rain = 0
KLE1 140613Z 10010KT M04/M10 A3037 RMK A01 T10441101  RH  065%=      5-min Rain = 0
KLE1 140614Z 10009KT M05/M10 A3037 RMK A01 T10451100  RH  066%=      5-min Rain = 0
KLE1 140615Z 10010KT M05/M10 A3037 RMK A01 T10461099  RH  066%=      5-min Rain = 0
KLE1 140616Z 10010KT M05/M10 A3037 RMK A01 T10461100  RH  066%=      5-min Rain = 0
KLE1 140617Z 10010KT M05/M10 A3037 RMK A01 T10461100  RH  066%=      5-min Rain = 0
KLE1 140618Z 10010KT M05/M10 A3037 RMK A01 T10451100  RH  066%=      5-min Rain = 0
KLE1 140619Z 10009KT M05/M10 A3037 RMK A01 T10461100  RH  066%=      5-min Rain = 0
KLE1 140620Z 10009KT M05/M10 A3037 RMK A01 T10461100  RH  066%=      5-min Rain = 0
KLE1 140621Z 10009KT M05/M10 A3037 RMK A01 T10461099  RH  066%=      5-min Rain = 0
KLE1 140622Z 10010KT M05/M10 A3037 RMK A01 T10461099  RH  066%=      5-min Rain = 0
KLE1 140623Z 10009KT M05/M10 A3037 RMK A01 T10461100  RH  066%=      5-min Rain = 0
KLE1 140624Z 10008KT M05/M10 A3037 RMK A01 T10461100  RH  066%=      5-min Rain = 0
KLE1 140625Z 10008KT M05/M10 A3037 RMK A01 T10461099  RH  067%=      5-min Rain = 0
KLE1 140626Z 10008KT M05/M10 A3037 RMK A01 T10471099  RH  067%=      5-min Rain = 0
KLE1 140627Z 10007KT M05/M10 A3037 RMK A01 T10471098  RH  067%=      5-min Rain = 0
KLE1 140628Z 10008KT M05/M10 A3037 RMK A01 T10481098  RH  068%=      5-min Rain = 0
KLE1 140629Z 10008KT M05/M10 A3037 RMK A01 T10481098  RH  068%=      5-min Rain = 0
KLE1 140630Z 10008KT M05/M10 A3037 RMK A01 T10481097  RH  069%=      5-min Rain = 0
KLE1 140631Z 10007KT M05/M10 A3037 RMK A01 T10481097  RH  069%=      5-min Rain = 0
KLE1 140632Z 09007KT M05/M10 A3037 RMK A01 T10481097  RH  068%=      5-min Rain = 0
KLE1 140633Z 09007KT M05/M10 A3037 RMK A01 T10481097  RH  068%=      5-min Rain = 0
KLE1 140634Z 10007KT M05/M10 A3037 RMK A01 T10481097  RH  069%=      5-min Rain = 0
KLE1 140635Z 09007KT M05/M10 A3037 RMK A01 T10491097  RH  069%=      5-min Rain = 0
KLE1 140636Z 09006KT M05/M10 A3037 RMK A01 T10491096  RH  069%=      5-min Rain = 0
KLE1 140637Z 09007KT M05/M10 A3037 RMK A01 T10491096  RH  070%=      5-min Rain = 0
KLE1 140638Z 09006KT M05/M10 A3037 RMK A01 T10491095  RH  070%=      5-min Rain = 0
KLE1 140639Z 09007KT M05/M10 A3037 RMK A01 T10491095  RH  071%=      5-min Rain = 0
KLE1 140640Z 09007KT M05/M10 A3037 RMK A01 T10501095  RH  071%=      5-min Rain = 0
KLE1 140641Z 09007KT M05/M10 A3037 RMK A01 T10501096  RH  071%=      5-min Rain = 0
KLE1 140642Z 09007KT M05/M10 A3037 RMK A01 T10511097  RH  070%=      5-min Rain = 0
KLE1 140643Z 09007KT M05/M10 A3037 RMK A01 T10501097  RH  070%=      5-min Rain = 0
KLE1 140644Z 09007KT M05/M10 A3037 RMK A01 T10511097  RH  070%=      5-min Rain = 0
KLE1 140645Z 09007KT M05/M10 A3037 RMK A01 T10511097  RH  070%=      5-min Rain = 0
KLE1 140646Z 09007KT M05/M10 A3037 RMK A01 T10511097  RH  070%=      5-min Rain = 0
KLE1 140647Z 09007KT M05/M10 A3037 RMK A01 T10511097  RH  070%=      5-min Rain = 0
KLE1 140648Z 09007KT M05/M10 A3037 RMK A01 T10511096  RH  070%=      5-min Rain = 0
KLE1 140649Z 09007KT M05/M10 A3037 RMK A01 T10511096  RH  071%=      5-min Rain = 0
KLE1 140650Z 09007KT M05/M10 A3037 RMK A01 T10511097  RH  070%=      5-min Rain = 0
KLE1 140651Z 09007KT M05/M10 A3037 RMK A01 T10521097  RH  071%=      5-min Rain = 0
KLE1 140652Z 09007KT M05/M10 A3037 RMK A01 T10521096  RH  071%=      5-min Rain = 0
KLE1 140653Z 09007KT M05/M10 A3037 RMK A01 T10521096  RH  071%=      5-min Rain = 0
KLE1 140654Z 09007KT M05/M10 A3037 RMK A01 T10511097  RH  071%=      5-min Rain = 0
KLE1 140655Z 09007KT M05/M10 A3037 RMK A01 T10521098  RH  070%=      5-min Rain = 0
KLE1 140656Z 09007KT M05/M10 A3037 RMK A01 T10521098  RH  070%=      5-min Rain = 0
KLE1 140657Z 09006KT M05/M10 A3037 RMK A01 T10521098  RH  070%=      5-min Rain = 0
KLE1 140658Z 09006KT M05/M10 A3037 RMK A01 T10511097  RH  070%=      5-min Rain = 0
KLE1 140659Z 09006KT M05/M10 A3037 RMK A01 T10521097  RH  070%=      5-min Rain = 0
KLE1 140700Z 09006KT M05/M10 A3037 RMK A01 T10521097  RH  071%=      5-min Rain = 0
KLE1 140701Z 09006KT M05/M10 A3037 RMK A01 T10531097  RH  071%=      5-min Rain = 0
KLE1 140702Z 09006KT M05/M10 A3037 RMK A01 T10531097  RH  071%=      5-min Rain = 0
KLE1 140703Z 09007KT M05/M10 A3037 RMK A01 T10531097  RH  071%=      5-min Rain = 0
KLE1 140704Z 09007KT M05/M10 A3037 RMK A01 T10531098  RH  071%=      5-min Rain = 0
KLE1 140705Z 09007KT M05/M10 A3037 RMK A01 T10531099  RH  070%=      5-min Rain = 0
KLE1 140706Z 09007KT M05/M10 A3037 RMK A01 T10531099  RH  070%=      5-min Rain = 0
KLE1 140707Z 09006KT M05/M10 A3037 RMK A01 T10531099  RH  070%=      5-min Rain = 0
KLE1 140708Z 09006KT M05/M10 A3037 RMK A01 T10531099  RH  070%=      5-min Rain = 0
KLE1 140709Z 09006KT M05/M10 A3037 RMK A01 T10531098  RH  071%=      5-min Rain = 0
KLE1 140710Z 09006KT M05/M10 A3037 RMK A01 T10531098  RH  071%=      5-min Rain = 0
KLE1 140711Z 09006KT M05/M10 A3037 RMK A01 T10541098  RH  071%=      5-min Rain = 0
KLE1 140712Z 09005KT M05/M10 A3037 RMK A01 T10541098  RH  071%=      5-min Rain = 0
KLE1 140713Z 09005KT M05/M10 A3037 RMK A01 T10541098  RH  071%=      5-min Rain = 0
KLE1 140714Z 09005KT M06/M10 A3037 RMK A01 T10551098  RH  072%=      5-min Rain = 0
KLE1 140715Z 09005KT M06/M10 A3037 RMK A01 T10551097  RH  072%=      5-min Rain = 0
KLE1 140716Z 09005KT M06/M10 A3037 RMK A01 T10551096  RH  073%=      5-min Rain = 0
KLE1 140717Z 09005KT M06/M10 A3037 RMK A01 T10551097  RH  073%=      5-min Rain = 0
KLE1 140718Z 09005KT M06/M10 A3037 RMK A01 T10551097  RH  073%=      5-min Rain = 0
KLE1 140719Z 09005KT M06/M10 A3037 RMK A01 T10561097  RH  073%=      5-min Rain = 0
KLE1 140720Z 09005KT M06/M10 A3037 RMK A01 T10561096  RH  073%=      5-min Rain = 0
KLE1 140721Z 09005KT M06/M10 A3038 RMK A01 T10561097  RH  073%=      5-min Rain = 0
KLE1 140722Z 09005KT M06/M10 A3038 RMK A01 T10561096  RH  073%=      5-min Rain = 0
KLE1 140723Z 08005KT M06/M10 A3038 RMK A01 T10571097  RH  073%=      5-min Rain = 0
KLE1 140724Z 09005KT M06/M10 A3038 RMK A01 T10571097  RH  073%=      5-min Rain = 0
KLE1 140725Z 09005KT M06/M10 A3038 RMK A01 T10571096  RH  074%=      5-min Rain = 0
KLE1 140726Z 09005KT M06/M10 A3038 RMK A01 T10561096  RH  074%=      5-min Rain = 0
KLE1 140727Z 09005KT M06/M10 A3038 RMK A01 T10571096  RH  074%=      5-min Rain = 0
KLE1 140728Z 09005KT M06/M10 A3038 RMK A01 T10571095  RH  074%=      5-min Rain = 0
KLE1 140729Z 10005KT M06/M10 A3038 RMK A01 T10571095  RH  075%=      5-min Rain = 0
KLE1 140730Z 10005KT M06/M10 A3038 RMK A01 T10571095  RH  074%=      5-min Rain = 0
KLE1 140731Z 10005KT M06/M10 A3038 RMK A01 T10571095  RH  074%=      5-min Rain = 0
KLE1 140732Z 10005KT M06/M10 A3038 RMK A01 T10571096  RH  074%=      5-min Rain = 0
KLE1 140733Z 10005KT M06/M10 A3038 RMK A01 T10571096  RH  074%=      5-min Rain = 0
KLE1 140734Z 10005KT M06/M10 A3038 RMK A01 T10571096  RH  074%=      5-min Rain = 0
KLE1 140735Z 10005KT M06/M10 A3038 RMK A01 T10571097  RH  074%=      5-min Rain = 0
KLE1 140736Z 11005KT M06/M10 A3038 RMK A01 T10571097  RH  073%=      5-min Rain = 0
KLE1 140737Z 11005KT M06/M10 A3038 RMK A01 T10571097  RH  074%=      5-min Rain = 0
KLE1 140738Z 11005KT M06/M10 A3038 RMK A01 T10581098  RH  073%=      5-min Rain = 0
KLE1 140739Z 11004KT M06/M10 A3038 RMK A01 T10581098  RH  073%=      5-min Rain = 0
KLE1 140740Z 11004KT M06/M10 A3038 RMK A01 T10581097  RH  074%=      5-min Rain = 0
KLE1 140741Z 10005KT M06/M10 A3038 RMK A01 T10571096  RH  074%=      5-min Rain = 0
KLE1 140742Z 11005KT M06/M10 A3038 RMK A01 T10581096  RH  075%=      5-min Rain = 0
KLE1 140743Z 11004KT M06/M10 A3038 RMK A01 T10581096  RH  074%=      5-min Rain = 0
KLE1 140744Z 11004KT M06/M10 A3038 RMK A01 T10581096  RH  074%=      5-min Rain = 0
KLE1 140745Z 11004KT M06/M10 A3038 RMK A01 T10571095  RH  075%=      5-min Rain = 0
KLE1 140746Z 11004KT M06/M10 A3038 RMK A01 T10581096  RH  074%=      5-min Rain = 0
KLE1 140747Z 11004KT M06/M10 A3038 RMK A01 T10571096  RH  074%=      5-min Rain = 0
KLE1 140748Z 11005KT M06/M10 A3038 RMK A01 T10571096  RH  074%=      5-min Rain = 0
KLE1 140749Z 11005KT M06/M10 A3038 RMK A01 T10571097  RH  074%=      5-min Rain = 0
KLE1 140750Z 11004KT M06/M10 A3038 RMK A01 T10571098  RH  073%=      5-min Rain = 0
KLE1 140751Z 11005KT M06/M10 A3038 RMK A01 T10561098  RH  073%=      5-min Rain = 0
KLE1 140752Z 10004KT M06/M10 A3038 RMK A01 T10561097  RH  073%=      5-min Rain = 0
KLE1 140753Z 11005KT M06/M10 A3038 RMK A01 T10561098  RH  073%=      5-min Rain = 0
KLE1 140754Z 10004KT M06/M10 A3038 RMK A01 T10561098  RH  073%=      5-min Rain = 0
KLE1 140755Z 11005KT M06/M10 A3038 RMK A01 T10561097  RH  073%=      5-min Rain = 0
KLE1 140756Z 11005KT M06/M10 A3038 RMK A01 T10561098  RH  072%=      5-min Rain = 0
KLE1 140757Z 11005KT M06/M10 A3038 RMK A01 T10561098  RH  072%=      5-min Rain = 0
KLE1 140758Z 11004KT M06/M10 A3038 RMK A01 T10561098  RH  072%=      5-min Rain = 0
KLE1 140759Z 11004KT M06/M10 A3038 RMK A01 T10561098  RH  073%=      5-min Rain = 0
KLE1 140800Z 11004KT M06/M10 A3038 RMK A01 T10571097  RH  073%=      5-min Rain = 0
KLE1 140801Z 11004KT M06/M10 A3038 RMK A01 T10571097  RH  073%=      5-min Rain = 0
KLE1 140802Z 11004KT M06/M10 A3038 RMK A01 T10571097  RH  074%=      5-min Rain = 0
KLE1 140803Z 11004KT M06/M10 A3038 RMK A01 T10581098  RH  074%=      5-min Rain = 0
KLE1 140804Z 11004KT M06/M10 A3038 RMK A01 T10581097  RH  074%=      5-min Rain = 0
KLE1 140805Z 11004KT M06/M10 A3038 RMK A01 T10581097  RH  074%=      5-min Rain = 0
KLE1 140806Z 11004KT M06/M10 A3038 RMK A01 T10581097  RH  074%=      5-min Rain = 0
KLE1 140807Z 11004KT M06/M10 A3038 RMK A01 T10591097  RH  074%=      5-min Rain = 0
KLE1 140808Z 11004KT M06/M10 A3038 RMK A01 T10581097  RH  074%=      5-min Rain = 0
KLE1 140809Z 12004KT M06/M10 A3038 RMK A01 T10591097  RH  074%=      5-min Rain = 0
KLE1 140810Z 12003KT M06/M10 A3038 RMK A01 T10591097  RH  074%=      5-min Rain = 0
KLE1 140811Z 12004KT M06/M10 A3038 RMK A01 T10591097  RH  075%=      5-min Rain = 0
KLE1 140812Z 12004KT M06/M10 A3038 RMK A01 T10601097  RH  075%=      5-min Rain = 0
KLE1 140813Z 12004KT M06/M10 A3038 RMK A01 T10601097  RH  075%=      5-min Rain = 0
KLE1 140814Z 11004KT M06/M10 A3038 RMK A01 T10601097  RH  075%=      5-min Rain = 0
KLE1 140815Z 11004KT M06/M10 A3038 RMK A01 T10601098  RH  075%=      5-min Rain = 0
KLE1 140816Z 11004KT M06/M10 A3038 RMK A01 T10601098  RH  074%=      5-min Rain = 0
KLE1 140817Z 11004KT M06/M10 A3038 RMK A01 T10601098  RH  074%=      5-min Rain = 0
KLE1 140818Z 11004KT M06/M10 A3038 RMK A01 T10601098  RH  075%=      5-min Rain = 0
KLE1 140819Z 11004KT M06/M10 A3038 RMK A01 T10591097  RH  075%=      5-min Rain = 0
KLE1 140820Z 11004KT M06/M10 A3038 RMK A01 T10591097  RH  075%=      5-min Rain = 0
KLE1 140821Z 11004KT M06/M10 A3038 RMK A01 T10591097  RH  075%=      5-min Rain = 0
KLE1 140822Z 11004KT M06/M10 A3038 RMK A01 T10591097  RH  075%=      5-min Rain = 0
KLE1 140823Z 11003KT M06/M10 A3038 RMK A01 T10591097  RH  075%=      5-min Rain = 0
KLE1 140824Z 11004KT M06/M10 A3038 RMK A01 T10591097  RH  075%=      5-min Rain = 0
KLE1 140825Z 11004KT M06/M10 A3038 RMK A01 T10591097  RH  075%=      5-min Rain = 0
KLE1 140826Z 11004KT M06/M10 A3038 RMK A01 T10591098  RH  074%=      5-min Rain = 0
KLE1 140827Z 10003KT M06/M10 A3038 RMK A01 T10591098  RH  074%=      5-min Rain = 0
KLE1 140828Z 10003KT M06/M10 A3038 RMK A01 T10591099  RH  074%=      5-min Rain = 0
KLE1 140829Z 10003KT M06/M10 A3039 RMK A01 T10591099  RH  074%=      5-min Rain = 0
KLE1 140830Z 09002KT M06/M10 A3039 RMK A01 T10591099  RH  074%=      5-min Rain = 0
KLE1 140831Z 09002KT M06/M10 A3039 RMK A01 T10591098  RH  074%=      5-min Rain = 0
KLE1 140832Z 09002KT M06/M10 A3039 RMK A01 T10591098  RH  074%=      5-min Rain = 0
KLE1 140833Z 09002KT M06/M10 A3039 RMK A01 T10591097  RH  075%=      5-min Rain = 0
KLE1 140834Z 08001KT M06/M10 A3039 RMK A01 T10601095  RH  076%=      5-min Rain = 0
KLE1 140835Z 09001KT M06/M09 A3039 RMK A01 T10601093  RH  078%=      5-min Rain = 0
KLE1 140836Z 09002KT M06/M09 A3039 RMK A01 T10601092  RH  078%=      5-min Rain = 0
KLE1 140837Z 09002KT M06/M09 A3039 RMK A01 T10601091  RH  079%=      5-min Rain = 0
KLE1 140838Z 09002KT M06/M09 A3039 RMK A01 T10611091  RH  079%=      5-min Rain = 0
KLE1 140839Z 09002KT M06/M09 A3039 RMK A01 T10611092  RH  079%=      5-min Rain = 0
KLE1 140840Z 09001KT M06/M09 A3039 RMK A01 T10611092  RH  079%=      5-min Rain = 0
KLE1 140841Z 09001KT M06/M09 A3039 RMK A01 T10611092  RH  078%=      5-min Rain = 0
KLE1 140842Z 09001KT M06/M09 A3038 RMK A01 T10611093  RH  078%=      5-min Rain = 0
KLE1 140843Z 09001KT M06/M09 A3038 RMK A01 T10611093  RH  078%=      5-min Rain = 0
KLE1 140844Z 09001KT M06/M09 A3038 RMK A01 T10611093  RH  078%=      5-min Rain = 0
KLE1 140845Z 09001KT M06/M09 A3038 RMK A01 T10611093  RH  078%=      5-min Rain = 0
KLE1 140846Z 08001KT M06/M09 A3038 RMK A01 T10611094  RH  077%=      5-min Rain = 0
KLE1 140847Z 07001KT M06/M10 A3038 RMK A01 T10611096  RH  076%=      5-min Rain = 0
KLE1 140848Z 06001KT M06/M10 A3038 RMK A01 T10601096  RH  076%=      5-min Rain = 0
KLE1 140849Z 06001KT M06/M10 A3038 RMK A01 T10601097  RH  075%=      5-min Rain = 0
KLE1 140850Z 06001KT M06/M10 A3038 RMK A01 T10601097  RH  075%=      5-min Rain = 0
KLE1 140851Z 06001KT M06/M10 A3038 RMK A01 T10601097  RH  075%=      5-min Rain = 0
KLE1 140852Z 06001KT M06/M10 A3038 RMK A01 T10591097  RH  075%=      5-min Rain = 0
KLE1 140853Z 06001KT M06/M10 A3038 RMK A01 T10591098  RH  074%=      5-min Rain = 0
KLE1 140854Z 06001KT M06/M10 A3038 RMK A01 T10591098  RH  074%=      5-min Rain = 0
KLE1 140855Z 06001KT M06/M10 A3038 RMK A01 T10591098  RH  074%=      5-min Rain = 0
KLE1 140856Z 07001KT M06/M10 A3038 RMK A01 T10591099  RH  073%=      5-min Rain = 0
KLE1 140857Z 07001KT M06/M10 A3038 RMK A01 T10591100  RH  073%=      5-min Rain = 0
KLE1 140858Z 08001KT M06/M10 A3038 RMK A01 T10591100  RH  073%=      5-min Rain = 0
KLE1 140859Z 08001KT M06/M10 A3038 RMK A01 T10591101  RH  072%=      5-min Rain = 0
KLE1 140900Z 09001KT M06/M10 A3038 RMK A01 T10591100  RH  072%=      5-min Rain = 0
KLE1 140901Z 09001KT M06/M10 A3038 RMK A01 T10591101  RH  072%=      5-min Rain = 0
KLE1 140902Z 09001KT M06/M10 A3038 RMK A01 T10581101  RH  072%=      5-min Rain = 0
KLE1 140903Z 09001KT M06/M10 A3039 RMK A01 T10591102  RH  071%=      5-min Rain = 0
KLE1 140904Z 09001KT M06/M10 A3039 RMK A01 T10591103  RH  071%=      5-min Rain = 0
KLE1 140905Z 09001KT M06/M10 A3039 RMK A01 T10581102  RH  071%=      5-min Rain = 0
KLE1 140906Z 09001KT M06/M10 A3039 RMK A01 T10581102  RH  071%=      5-min Rain = 0
KLE1 140907Z 09001KT M06/M10 A3039 RMK A01 T10591102  RH  072%=      5-min Rain = 0
KLE1 140908Z 09001KT M06/M10 A3039 RMK A01 T10581101  RH  072%=      5-min Rain = 0
KLE1 140909Z 09001KT M06/M10 A3039 RMK A01 T10591102  RH  072%=      5-min Rain = 0
KLE1 140910Z 09001KT M06/M10 A3039 RMK A01 T10591102  RH  072%=      5-min Rain = 0
KLE1 140911Z 08001KT M06/M10 A3039 RMK A01 T10581101  RH  072%=      5-min Rain = 0
KLE1 140912Z 08001KT M06/M10 A3039 RMK A01 T10581101  RH  072%=      5-min Rain = 0
KLE1 140913Z 07001KT M06/M10 A3039 RMK A01 T10591102  RH  072%=      5-min Rain = 0
KLE1 140914Z 06001KT M06/M10 A3039 RMK A01 T10591102  RH  071%=      5-min Rain = 0
KLE1 140915Z 05001KT M06/M10 A3039 RMK A01 T10581102  RH  071%=      5-min Rain = 0
KLE1 140916Z 05001KT M06/M10 A3039 RMK A01 T10581102  RH  071%=      5-min Rain = 0
KLE1 140917Z 05002KT M06/M10 A3039 RMK A01 T10581101  RH  071%=      5-min Rain = 0
KLE1 140918Z 05002KT M06/M10 A3039 RMK A01 T10581101  RH  072%=      5-min Rain = 0
KLE1 140919Z 04002KT M06/M10 A3039 RMK A01 T10581101  RH  072%=      5-min Rain = 0
KLE1 140920Z 04002KT M06/M10 A3039 RMK A01 T10581100  RH  072%=      5-min Rain = 0
KLE1 140921Z 03002KT M06/M10 A3039 RMK A01 T10591100  RH  073%=      5-min Rain = 0
KLE1 140922Z 03002KT M06/M10 A3039 RMK A01 T10591099  RH  073%=      5-min Rain = 0
KLE1 140923Z 04002KT M06/M10 A3039 RMK A01 T10601098  RH  074%=      5-min Rain = 0
KLE1 140924Z 04001KT M06/M10 A3039 RMK A01 T10611098  RH  075%=      5-min Rain = 0
KLE1 140925Z 04002KT M06/M10 A3039 RMK A01 T10611099  RH  074%=      5-min Rain = 0
KLE1 140926Z 05002KT M06/M10 A3039 RMK A01 T10611101  RH  073%=      5-min Rain = 0
KLE1 140927Z 05002KT M06/M10 A3039 RMK A01 T10601101  RH  073%=      5-min Rain = 0
KLE1 140928Z 06002KT M06/M10 A3039 RMK A01 T10601101  RH  073%=      5-min Rain = 0
KLE1 140929Z 06002KT M06/M10 A3039 RMK A01 T10601102  RH  072%=      5-min Rain = 0
KLE1 140930Z 06002KT M06/M10 A3039 RMK A01 T10601102  RH  072%=      5-min Rain = 0
KLE1 140931Z 06002KT M06/M10 A3039 RMK A01 T10601102  RH  072%=      5-min Rain = 0
KLE1 140932Z 06002KT M06/M10 A3039 RMK A01 T10601102  RH  072%=      5-min Rain = 0
KLE1 140933Z 06002KT M06/M10 A3039 RMK A01 T10591102  RH  072%=      5-min Rain = 0
KLE1 140934Z 07002KT M06/M10 A3039 RMK A01 T10591102  RH  072%=      5-min Rain = 0
KLE1 140935Z 07002KT M06/M10 A3039 RMK A01 T10601102  RH  072%=      5-min Rain = 0
KLE1 140936Z 07002KT M06/M10 A3039 RMK A01 T10591102  RH  072%=      5-min Rain = 0
KLE1 140937Z 07002KT M06/M10 A3039 RMK A01 T10591101  RH  072%=      5-min Rain = 0
KLE1 140938Z 07002KT M06/M10 A3039 RMK A01 T10591102  RH  072%=      5-min Rain = 0
KLE1 140939Z 07003KT M06/M10 A3039 RMK A01 T10591102  RH  072%=      5-min Rain = 0
KLE1 140940Z 07003KT M06/M10 A3039 RMK A01 T10601101  RH  073%=      5-min Rain = 0
KLE1 140941Z 08003KT M06/M10 A3039 RMK A01 T10591099  RH  073%=      5-min Rain = 0
KLE1 140942Z 07003KT M06/M10 A3039 RMK A01 T10591099  RH  074%=      5-min Rain = 0
KLE1 140943Z 07003KT M06/M10 A3039 RMK A01 T10591099  RH  074%=      5-min Rain = 0
KLE1 140944Z 07003KT M06/M10 A3039 RMK A01 T10601100  RH  073%=      5-min Rain = 0
KLE1 140945Z 07002KT M06/M10 A3039 RMK A01 T10601100  RH  073%=      5-min Rain = 0
KLE1 140946Z 07002KT M06/M10 A3039 RMK A01 T10601101  RH  073%=      5-min Rain = 0
KLE1 140947Z 07003KT M06/M10 A3039 RMK A01 T10601100  RH  073%=      5-min Rain = 0
KLE1 140948Z 06002KT M06/M10 A3039 RMK A01 T10601100  RH  073%=      5-min Rain = 0
KLE1 140949Z 04002KT M06/M10 A3039 RMK A01 T10601100  RH  074%=      5-min Rain = 0
KLE1 140950Z 04002KT M06/M10 A3039 RMK A01 T10601099  RH  074%=      5-min Rain = 0
KLE1 140951Z 04002KT M06/M10 A3039 RMK A01 T10611098  RH  075%=      5-min Rain = 0
KLE1 140952Z 04002KT M06/M10 A3039 RMK A01 T10611097  RH  076%=      5-min Rain = 0
KLE1 140953Z 05002KT M06/M10 A3039 RMK A01 T10621096  RH  077%=      5-min Rain = 0
KLE1 140954Z 05002KT M06/M10 A3039 RMK A01 T10621096  RH  077%=      5-min Rain = 0
KLE1 140955Z 04002KT M06/M10 A3039 RMK A01 T10621095  RH  077%=      5-min Rain = 0
KLE1 140956Z 04002KT M06/M10 A3039 RMK A01 T10621095  RH  077%=      5-min Rain = 0
KLE1 140957Z 04002KT M06/M10 A3039 RMK A01 T10621095  RH  078%=      5-min Rain = 0
KLE1 140958Z 04002KT M06/M10 A3039 RMK A01 T10631095  RH  078%=      5-min Rain = 0
KLE1 140959Z 04002KT M06/M10 A3039 RMK A01 T10631096  RH  077%=      5-min Rain = 0
KLE1 141000Z 04002KT M06/M10 A3039 RMK A01 T10621096  RH  077%=      5-min Rain = 0
KLE1 141001Z 04003KT M06/M10 A3039 RMK A01 T10631096  RH  077%=      5-min Rain = 0
KLE1 141002Z 04003KT M06/M10 A3039 RMK A01 T10631097  RH  077%=      5-min Rain = 0
KLE1 141003Z 04003KT M06/M10 A3039 RMK A01 T10631097  RH  077%=      5-min Rain = 0
KLE1 141004Z 04003KT M06/M10 A3039 RMK A01 T10631097  RH  077%=      5-min Rain = 0
KLE1 141005Z 05003KT M06/M10 A3039 RMK A01 T10631097  RH  077%=      5-min Rain = 0
KLE1 141006Z 05003KT M06/M10 A3039 RMK A01 T10631097  RH  077%=      5-min Rain = 0
KLE1 141007Z 05003KT M06/M10 A3039 RMK A01 T10631097  RH  077%=      5-min Rain = 0
KLE1 141008Z 04003KT M06/M10 A3039 RMK A01 T10641098  RH  077%=      5-min Rain = 0
KLE1 141009Z 05003KT M06/M10 A3039 RMK A01 T10641098  RH  077%=      5-min Rain = 0
KLE1 141010Z 05003KT M06/M10 A3039 RMK A01 T10641098  RH  077%=      5-min Rain = 0
KLE1 141011Z 05003KT M06/M10 A3039 RMK A01 T10641098  RH  077%=      5-min Rain = 0
KLE1 141012Z 05003KT M06/M10 A3039 RMK A01 T10641098  RH  077%=      5-min Rain = 0
KLE1 141013Z 04003KT M06/M10 A3039 RMK A01 T10641099  RH  076%=      5-min Rain = 0
KLE1 141014Z 04003KT M06/M10 A3039 RMK A01 T10641099  RH  076%=      5-min Rain = 0
KLE1 141015Z 04003KT M06/M10 A3039 RMK A01 T10641099  RH  076%=      5-min Rain = 0
KLE1 141016Z 04003KT M06/M10 A3039 RMK A01 T10641099  RH  076%=      5-min Rain = 0
KLE1 141017Z 04003KT M06/M10 A3038 RMK A01 T10641099  RH  076%=      5-min Rain = 0
KLE1 141018Z 04003KT M06/M10 A3038 RMK A01 T10641099  RH  076%=      5-min Rain = 0
KLE1 141019Z 05002KT M06/M10 A3038 RMK A01 T10641099  RH  076%=      5-min Rain = 0
KLE1 141020Z 05002KT M06/M10 A3038 RMK A01 T10641099  RH  076%=      5-min Rain = 0
KLE1 141021Z 05002KT M06/M10 A3038 RMK A01 T10641099  RH  076%=      5-min Rain = 0
KLE1 141022Z 05003KT M06/M10 A3038 RMK A01 T10641100  RH  076%=      5-min Rain = 0
KLE1 141023Z 05003KT M06/M10 A3038 RMK A01 T10641100  RH  076%=      5-min Rain = 0
KLE1 141024Z 05003KT M06/M10 A3038 RMK A01 T10641100  RH  076%=      5-min Rain = 0
KLE1 141025Z 05003KT M06/M10 A3038 RMK A01 T10631100  RH  076%=      5-min Rain = 0
KLE1 141026Z 04003KT M06/M10 A3038 RMK A01 T10631099  RH  076%=      5-min Rain = 0
KLE1 141027Z 04002KT M06/M10 A3038 RMK A01 T10641099  RH  076%=      5-min Rain = 0
KLE1 141028Z 04002KT M06/M10 A3038 RMK A01 T10631098  RH  076%=      5-min Rain = 0
KLE1 141029Z 04003KT M06/M10 A3038 RMK A01 T10631099  RH  076%=      5-min Rain = 0
KLE1 141030Z 05003KT M06/M10 A3038 RMK A01 T10641099  RH  076%=      5-min Rain = 0
KLE1 141031Z 06004KT M06/M10 A3038 RMK A01 T10641099  RH  076%=      5-min Rain = 0
KLE1 141032Z 06003KT M06/M10 A3038 RMK A01 T10641100  RH  076%=      5-min Rain = 0
KLE1 141033Z 06003KT M06/M10 A3038 RMK A01 T10641103  RH  074%=      5-min Rain = 0
KLE1 141034Z 06003KT M07/M10 A3038 RMK A01 T10651103  RH  074%=      5-min Rain = 0
KLE1 141035Z 06003KT M06/M10 A3038 RMK A01 T10641102  RH  074%=      5-min Rain = 0
KLE1 141036Z 07003KT M06/M10 A3038 RMK A01 T10641101  RH  075%=      5-min Rain = 0
KLE1 141037Z 06003KT M07/M10 A3038 RMK A01 T10651102  RH  075%=      5-min Rain = 0
KLE1 141038Z 06003KT M07/M10 A3038 RMK A01 T10651102  RH  075%=      5-min Rain = 0
KLE1 141039Z 06003KT M07/M10 A3038 RMK A01 T10651102  RH  075%=      5-min Rain = 0
KLE1 141040Z 06003KT M06/M10 A3038 RMK A01 T10641101  RH  075%=      5-min Rain = 0
KLE1 141041Z 06003KT M07/M10 A3038 RMK A01 T10651101  RH  076%=      5-min Rain = 0
KLE1 141042Z 06003KT M07/M10 A3038 RMK A01 T10651100  RH  076%=      5-min Rain = 0
KLE1 141043Z 06003KT M07/M10 A3038 RMK A01 T10651099  RH  077%=      5-min Rain = 0
KLE1 141044Z 06003KT M07/M10 A3038 RMK A01 T10651098  RH  078%=      5-min Rain = 0
KLE1 141045Z 06003KT M07/M10 A3038 RMK A01 T10651097  RH  078%=      5-min Rain = 0
KLE1 141046Z 06003KT M07/M10 A3038 RMK A01 T10661097  RH  078%=      5-min Rain = 0
KLE1 141047Z 06003KT M07/M10 A3038 RMK A01 T10661096  RH  079%=      5-min Rain = 0
KLE1 141048Z 06003KT M07/M10 A3038 RMK A01 T10661096  RH  079%=      5-min Rain = 0
KLE1 141049Z 06003KT M07/M10 A3038 RMK A01 T10661096  RH  079%=      5-min Rain = 0
KLE1 141050Z 06003KT M07/M10 A3038 RMK A01 T10661096  RH  079%=      5-min Rain = 0
KLE1 141051Z 06003KT M07/M10 A3038 RMK A01 T10661096  RH  079%=      5-min Rain = 0
KLE1 141052Z 06003KT M07/M10 A3038 RMK A01 T10661095  RH  080%=      5-min Rain = 0
KLE1 141053Z 07003KT M07/M10 A3038 RMK A01 T10661095  RH  080%=      5-min Rain = 0
KLE1 141054Z 07003KT M07/M10 A3038 RMK A01 T10661095  RH  080%=      5-min Rain = 0
KLE1 141055Z 07003KT M07/M10 A3038 RMK A01 T10661095  RH  080%=      5-min Rain = 0
KLE1 141056Z 07003KT M07/M10 A3038 RMK A01 T10661095  RH  080%=      5-min Rain = 0
KLE1 141057Z 08004KT M07/M10 A3038 RMK A01 T10661096  RH  080%=      5-min Rain = 0
KLE1 141058Z 08004KT M07/M10 A3038 RMK A01 T10661097  RH  078%=      5-min Rain = 0
KLE1 141059Z 07003KT M07/M10 A3038 RMK A01 T10661100  RH  077%=      5-min Rain = 0
KLE1 141100Z 08004KT M07/M10 A3038 RMK A01 T10661100  RH  077%=      5-min Rain = 0
KLE1 141101Z 07004KT M07/M10 A3038 RMK A01 T10661100  RH  077%=      5-min Rain = 0
KLE1 141102Z 08004KT M07/M10 A3038 RMK A01 T10661100  RH  077%=      5-min Rain = 0
KLE1 141103Z 07004KT M07/M10 A3038 RMK A01 T10661099  RH  078%=      5-min Rain = 0
KLE1 141104Z 07004KT M07/M10 A3038 RMK A01 T10661098  RH  078%=      5-min Rain = 0
KLE1 141105Z 08004KT M07/M10 A3038 RMK A01 T10671098  RH  079%=      5-min Rain = 0
KLE1 141106Z 08004KT M07/M10 A3038 RMK A01 T10671097  RH  079%=      5-min Rain = 0
KLE1 141107Z 08004KT M07/M10 A3038 RMK A01 T10681097  RH  080%=      5-min Rain = 0
KLE1 141108Z 08004KT M07/M10 A3038 RMK A01 T10681098  RH  079%=      5-min Rain = 0
KLE1 141109Z 08004KT M07/M10 A3038 RMK A01 T10681097  RH  080%=      5-min Rain = 0
KLE1 141110Z 08004KT M07/M10 A3038 RMK A01 T10681097  RH  080%=      5-min Rain = 0
KLE1 141111Z 08004KT M07/M10 A3038 RMK A01 T10681097  RH  080%=      5-min Rain = 0
KLE1 141112Z 08004KT M07/M10 A3038 RMK A01 T10681097  RH  080%=      5-min Rain = 0
KLE1 141113Z 08004KT M07/M10 A3038 RMK A01 T10681097  RH  080%=      5-min Rain = 0
KLE1 141114Z 08004KT M07/M10 A3038 RMK A01 T10681097  RH  080%=      5-min Rain = 0
KLE1 141115Z 09004KT M07/M10 A3038 RMK A01 T10681097  RH  080%=      5-min Rain = 0
KLE1 141116Z 09004KT M07/M10 A3038 RMK A01 T10671097  RH  079%=      5-min Rain = 0
KLE1 141117Z 08004KT M07/M10 A3038 RMK A01 T10681097  RH  079%=      5-min Rain = 0
KLE1 141118Z 08004KT M07/M10 A3038 RMK A01 T10681097  RH  080%=      5-min Rain = 0
KLE1 141119Z 08004KT M07/M10 A3038 RMK A01 T10681097  RH  080%=      5-min Rain = 0
KLE1 141120Z 09004KT M07/M10 A3038 RMK A01 T10681097  RH  080%=      5-min Rain = 0
KLE1 141121Z 09004KT M07/M10 A3038 RMK A01 T10681097  RH  080%=      5-min Rain = 0
KLE1 141122Z 09004KT M07/M10 A3038 RMK A01 T10681096  RH  080%=      5-min Rain = 0
KLE1 141123Z 09004KT M07/M10 A3038 RMK A01 T10681095  RH  081%=      5-min Rain = 0
KLE1 141124Z 09004KT M07/M09 A3038 RMK A01 T10671094  RH  081%=      5-min Rain = 0
KLE1 141125Z 09004KT M07/M09 A3038 RMK A01 T10671094  RH  081%=      5-min Rain = 0
KLE1 141126Z 09004KT M07/M09 A3038 RMK A01 T10671093  RH  081%=      5-min Rain = 0
KLE1 141127Z 09003KT M07/M09 A3038 RMK A01 T10671094  RH  081%=      5-min Rain = 0
KLE1 141128Z 09004KT M07/M09 A3038 RMK A01 T10661094  RH  081%=      5-min Rain = 0
KLE1 141129Z 09004KT M07/M09 A3038 RMK A01 T10661094  RH  081%=      5-min Rain = 0
KLE1 141130Z 09004KT M07/M10 A3038 RMK A01 T10661095  RH  080%=      5-min Rain = 0
KLE1 141131Z 09004KT M07/M10 A3038 RMK A01 T10671095  RH  080%=      5-min Rain = 0
KLE1 141132Z 09004KT M07/M10 A3038 RMK A01 T10671095  RH  080%=      5-min Rain = 0
KLE1 141133Z 09004KT M07/M10 A3038 RMK A01 T10671095  RH  080%=      5-min Rain = 0
KLE1 141134Z 09004KT M07/M10 A3038 RMK A01 T10671095  RH  081%=      5-min Rain = 0
KLE1 141135Z 09004KT M07/M10 A3038 RMK A01 T10671095  RH  081%=      5-min Rain = 0
KLE1 141136Z 09004KT M07/M10 A3038 RMK A01 T10681095  RH  081%=      5-min Rain = 0
KLE1 141137Z 09004KT M07/M10 A3038 RMK A01 T10671095  RH  081%=      5-min Rain = 0
KLE1 141138Z 09003KT M07/M10 A3038 RMK A01 T10681095  RH  081%=      5-min Rain = 0
KLE1 141139Z 09003KT M07/M10 A3038 RMK A01 T10681095  RH  081%=      5-min Rain = 0
KLE1 141140Z 09003KT M07/M09 A3038 RMK A01 T10681094  RH  081%=      5-min Rain = 0
KLE1 141141Z 09003KT M07/M09 A3038 RMK A01 T10671093  RH  082%=      5-min Rain = 0
KLE1 141142Z 09003KT M07/M09 A3038 RMK A01 T10671093  RH  082%=      5-min Rain = 0
KLE1 141143Z 09003KT M07/M09 A3038 RMK A01 T10671093  RH  082%=      5-min Rain = 0
KLE1 141144Z 09003KT M07/M09 A3038 RMK A01 T10661093  RH  082%=      5-min Rain = 0
KLE1 141145Z 09003KT M07/M09 A3038 RMK A01 T10661092  RH  081%=      5-min Rain = 0
KLE1 141146Z 09003KT M07/M09 A3038 RMK A01 T10661093  RH  081%=      5-min Rain = 0
KLE1 141147Z 09004KT M07/M09 A3038 RMK A01 T10661093  RH  081%=      5-min Rain = 0
KLE1 141148Z 09004KT M07/M09 A3038 RMK A01 T10651093  RH  081%=      5-min Rain = 0
KLE1 141149Z 09004KT M07/M09 A3038 RMK A01 T10651094  RH  080%=      5-min Rain = 0
KLE1 141150Z 09004KT M06/M09 A3038 RMK A01 T10641093  RH  080%=      5-min Rain = 0
KLE1 141151Z 09004KT M06/M09 A3038 RMK A01 T10641093  RH  080%=      5-min Rain = 0
KLE1 141152Z 10004KT M07/M10 A3038 RMK A01 T10651095  RH  079%=      5-min Rain = 0
KLE1 141153Z 10004KT M06/M10 A3038 RMK A01 T10641096  RH  078%=      5-min Rain = 0
KLE1 141154Z 10004KT M06/M10 A3038 RMK A01 T10641096  RH  078%=      5-min Rain = 0
KLE1 141155Z 09004KT M06/M10 A3038 RMK A01 T10641096  RH  078%=      5-min Rain = 0
KLE1 141156Z 09004KT M06/M10 A3038 RMK A01 T10641096  RH  078%=      5-min Rain = 0
KLE1 141157Z 09005KT M07/M10 A3038 RMK A01 T10651097  RH  078%=      5-min Rain = 0
KLE1 141158Z 09004KT M07/M10 A3038 RMK A01 T10651097  RH  078%=      5-min Rain = 0
KLE1 141159Z 09004KT M07/M10 A3038 RMK A01 T10651097  RH  078%=      5-min Rain = 0
KLE1 141200Z 09004KT M07/M10 A3038 RMK A01 T10651097  RH  078%=      5-min Rain = 0
KLE1 141201Z 09004KT M07/M10 A3038 RMK A01 T10651098  RH  078%=      5-min Rain = 0
KLE1 141202Z 10004KT M07/M10 A3038 RMK A01 T10651098  RH  077%=      5-min Rain = 0
KLE1 141203Z 10004KT M07/M10 A3038 RMK A01 T10651098  RH  077%=      5-min Rain = 0
KLE1 141204Z 10004KT M07/M10 A3038 RMK A01 T10651100  RH  077%=      5-min Rain = 0
KLE1 141205Z 10004KT M07/M10 A3038 RMK A01 T10651100  RH  076%=      5-min Rain = 0
KLE1 141206Z 10004KT M07/M10 A3038 RMK A01 T10651100  RH  077%=      5-min Rain = 0
KLE1 141207Z 10004KT M07/M10 A3038 RMK A01 T10651099  RH  077%=      5-min Rain = 0
KLE1 141208Z 10004KT M07/M10 A3038 RMK A01 T10651099  RH  077%=      5-min Rain = 0
KLE1 141209Z 10004KT M07/M10 A3038 RMK A01 T10651098  RH  077%=      5-min Rain = 0
KLE1 141210Z 09004KT M07/M10 A3038 RMK A01 T10651097  RH  078%=      5-min Rain = 0
KLE1 141211Z 10004KT M07/M10 A3038 RMK A01 T10651097  RH  078%=      5-min Rain = 0
KLE1 141212Z 09004KT M07/M10 A3038 RMK A01 T10651097  RH  078%=      5-min Rain = 0
KLE1 141213Z 10004KT M07/M10 A3038 RMK A01 T10651097  RH  078%=      5-min Rain = 0
KLE1 141214Z 09004KT M07/M10 A3038 RMK A01 T10651097  RH  078%=      5-min Rain = 0
KLE1 141215Z 09004KT M07/M10 A3038 RMK A01 T10651097  RH  079%=      5-min Rain = 0
KLE1 141216Z 09004KT M07/M10 A3038 RMK A01 T10651096  RH  079%=      5-min Rain = 0
KLE1 141217Z 09004KT M07/M10 A3038 RMK A01 T10661096  RH  079%=      5-min Rain = 0
KLE1 141218Z 09004KT M07/M10 A3039 RMK A01 T10651095  RH  079%=      5-min Rain = 0
KLE1 141219Z 09004KT M07/M10 A3039 RMK A01 T10661096  RH  079%=      5-min Rain = 0
KLE1 141220Z 09004KT M07/M10 A3039 RMK A01 T10661097  RH  079%=      5-min Rain = 0
KLE1 141221Z 09004KT M07/M10 A3039 RMK A01 T10661097  RH  079%=      5-min Rain = 0
KLE1 141222Z 09004KT M07/M10 A3039 RMK A01 T10661097  RH  078%=      5-min Rain = 0
KLE1 141223Z 09004KT M07/M10 A3039 RMK A01 T10661097  RH  079%=      5-min Rain = 0
KLE1 141224Z 09004KT M07/M10 A3038 RMK A01 T10661098  RH  078%=      5-min Rain = 0
KLE1 141225Z 09004KT M07/M10 A3038 RMK A01 T10661098  RH  078%=      5-min Rain = 0
KLE1 141226Z 09004KT M07/M10 A3038 RMK A01 T10671098  RH  078%=      5-min Rain = 0
KLE1 141227Z 09004KT M07/M10 A3038 RMK A01 T10671098  RH  078%=      5-min Rain = 0
KLE1 141228Z 08004KT M07/M10 A3038 RMK A01 T10671098  RH  078%=      5-min Rain = 0
KLE1 141229Z 08004KT M07/M10 A3038 RMK A01 T10671098  RH  079%=      5-min Rain = 0
KLE1 141230Z 08004KT M07/M10 A3038 RMK A01 T10671097  RH  079%=      5-min Rain = 0
KLE1 141231Z 08004KT M07/M10 A3038 RMK A01 T10681097  RH  080%=      5-min Rain = 0
KLE1 141232Z 08004KT M07/M10 A3038 RMK A01 T10681097  RH  080%=      5-min Rain = 0
KLE1 141233Z 08004KT M07/M10 A3038 RMK A01 T10681096  RH  080%=      5-min Rain = 0
KLE1 141234Z 08004KT M07/M10 A3038 RMK A01 T10691097  RH  080%=      5-min Rain = 0
KLE1 141235Z 08004KT M07/M10 A3038 RMK A01 T10691097  RH  080%=      5-min Rain = 0
KLE1 141236Z 08004KT M07/M10 A3038 RMK A01 T10701098  RH  080%=      5-min Rain = 0
KLE1 141237Z 08004KT M07/M10 A3038 RMK A01 T10701098  RH  080%=      5-min Rain = 0
KLE1 141238Z 08004KT M07/M10 A3038 RMK A01 T10701098  RH  081%=      5-min Rain = 0
KLE1 141239Z 08004KT M07/M10 A3038 RMK A01 T10701098  RH  081%=      5-min Rain = 0
KLE1 141240Z 08004KT M07/M10 A3038 RMK A01 T10711098  RH  081%=      5-min Rain = 0
KLE1 141241Z 08004KT M07/M10 A3038 RMK A01 T10711099  RH  081%=      5-min Rain = 0
KLE1 141242Z 08004KT M07/M10 A3038 RMK A01 T10711099  RH  080%=      5-min Rain = 0
KLE1 141243Z 08004KT M07/M10 A3038 RMK A01 T10711100  RH  080%=      5-min Rain = 0
KLE1 141244Z 08004KT M07/M10 A3038 RMK A01 T10711099  RH  081%=      5-min Rain = 0
KLE1 141245Z 08004KT M07/M10 A3038 RMK A01 T10711099  RH  081%=      5-min Rain = 0
KLE1 141246Z 08004KT M07/M10 A3038 RMK A01 T10701098  RH  081%=      5-min Rain = 0
KLE1 141247Z 08004KT M07/M10 A3038 RMK A01 T10691097  RH  081%=      5-min Rain = 0
KLE1 141248Z 08004KT M07/M10 A3038 RMK A01 T10691097  RH  080%=      5-min Rain = 0
KLE1 141249Z 08004KT M07/M10 A3038 RMK A01 T10681096  RH  080%=      5-min Rain = 0
KLE1 141250Z 08004KT M07/M10 A3038 RMK A01 T10681096  RH  080%=      5-min Rain = 0
KLE1 141251Z 08004KT M07/M10 A3038 RMK A01 T10671096  RH  080%=      5-min Rain = 0
KLE1 141252Z 08004KT M07/M10 A3038 RMK A01 T10671096  RH  080%=      5-min Rain = 0
KLE1 141253Z 08004KT M07/M10 A3038 RMK A01 T10661097  RH  079%=      5-min Rain = 0
KLE1 141254Z 08004KT M07/M10 A3038 RMK A01 T10661097  RH  079%=      5-min Rain = 0
KLE1 141255Z 09004KT M07/M10 A3038 RMK A01 T10661097  RH  079%=      5-min Rain = 0
KLE1 141256Z 09004KT M07/M10 A3038 RMK A01 T10661097  RH  078%=      5-min Rain = 0
KLE1 141257Z 09004KT M07/M10 A3038 RMK A01 T10661097  RH  078%=      5-min Rain = 0
KLE1 141258Z 08004KT M07/M10 A3038 RMK A01 T10661097  RH  078%=      5-min Rain = 0
KLE1 141259Z 09004KT M07/M10 A3038 RMK A01 T10651097  RH  078%=      5-min Rain = 0
KLE1 141300Z 09003KT M07/M10 A3038 RMK A01 T10651097  RH  078%=      5-min Rain = 0
KLE1 141301Z 08004KT M07/M10 A3038 RMK A01 T10651097  RH  079%=      5-min Rain = 0
KLE1 141302Z 08004KT M07/M10 A3038 RMK A01 T10651097  RH  078%=      5-min Rain = 0
KLE1 141303Z 08004KT M07/M10 A3038 RMK A01 T10651097  RH  078%=      5-min Rain = 0
KLE1 141304Z 08004KT M07/M10 A3038 RMK A01 T10651098  RH  078%=      5-min Rain = 0
KLE1 141305Z 08004KT M07/M10 A3038 RMK A01 T10651098  RH  077%=      5-min Rain = 0
KLE1 141306Z 08004KT M07/M10 A3038 RMK A01 T10651098  RH  078%=      5-min Rain = 0
KLE1 141307Z 08004KT M07/M10 A3038 RMK A01 T10651097  RH  078%=      5-min Rain = 0
KLE1 141308Z 08004KT M07/M10 A3038 RMK A01 T10651098  RH  078%=      5-min Rain = 0
KLE1 141309Z 08004KT M07/M10 A3038 RMK A01 T10651098  RH  077%=      5-min Rain = 0
KLE1 141310Z 08004KT M07/M10 A3038 RMK A01 T10651098  RH  077%=      5-min Rain = 0
KLE1 141311Z 08004KT M07/M10 A3038 RMK A01 T10651099  RH  077%=      5-min Rain = 0
KLE1 141312Z 08004KT M07/M10 A3038 RMK A01 T10651098  RH  077%=      5-min Rain = 0
KLE1 141313Z 08004KT M07/M10 A3038 RMK A01 T10651098  RH  077%=      5-min Rain = 0
KLE1 141314Z 08004KT M07/M10 A3038 RMK A01 T10651099  RH  077%=      5-min Rain = 0
KLE1 141315Z 08004KT M07/M10 A3038 RMK A01 T10651098  RH  077%=      5-min Rain = 0
KLE1 141316Z 08004KT M07/M10 A3038 RMK A01 T10661099  RH  077%=      5-min Rain = 0
KLE1 141317Z 08004KT M07/M10 A3038 RMK A01 T10661100  RH  077%=      5-min Rain = 0
KLE1 141318Z 08004KT M07/M10 A3038 RMK A01 T10671100  RH  077%=      5-min Rain = 0
KLE1 141319Z 08004KT M07/M10 A3038 RMK A01 T10671100  RH  078%=      5-min Rain = 0
KLE1 141320Z 08004KT M07/M10 A3038 RMK A01 T10681099  RH  078%=      5-min Rain = 0
KLE1 141321Z 08004KT M07/M10 A3038 RMK A01 T10681098  RH  079%=      5-min Rain = 0
KLE1 141322Z 08004KT M07/M10 A3038 RMK A01 T10681098  RH  079%=      5-min Rain = 0
KLE1 141323Z 08004KT M07/M10 A3038 RMK A01 T10691098  RH  079%=      5-min Rain = 0
KLE1 141324Z 09004KT M07/M10 A3038 RMK A01 T10681098  RH  079%=      5-min Rain = 0
KLE1 141325Z 08004KT M07/M10 A3038 RMK A01 T10681098  RH  080%=      5-min Rain = 0
KLE1 141326Z 09004KT M07/M10 A3038 RMK A01 T10691098  RH  080%=      5-min Rain = 0
KLE1 141327Z 09004KT M07/M10 A3038 RMK A01 T10691098  RH  080%=      5-min Rain = 0
KLE1 141328Z 10004KT M07/M10 A3038 RMK A01 T10691098  RH  080%=      5-min Rain = 0
KLE1 141329Z 09003KT M07/M10 A3039 RMK A01 T10691097  RH  080%=      5-min Rain = 0
KLE1 141330Z 09004KT M07/M10 A3039 RMK A01 T10691097  RH  080%=      5-min Rain = 0
KLE1 141331Z 09003KT M07/M10 A3039 RMK A01 T10691097  RH  080%=      5-min Rain = 0
KLE1 141332Z 09004KT M07/M10 A3039 RMK A01 T10681096  RH  081%=      5-min Rain = 0
KLE1 141333Z 09004KT M07/M10 A3039 RMK A01 T10671096  RH  080%=      5-min Rain = 0
KLE1 141334Z 09004KT M07/M10 A3039 RMK A01 T10671096  RH  080%=      5-min Rain = 0
KLE1 141335Z 09004KT M07/M10 A3039 RMK A01 T10661097  RH  079%=      5-min Rain = 0
KLE1 141336Z 09004KT M07/M10 A3039 RMK A01 T10661097  RH  078%=      5-min Rain = 0
KLE1 141337Z 09004KT M07/M10 A3039 RMK A01 T10651096  RH  079%=      5-min Rain = 0
KLE1 141338Z 09004KT M07/M10 A3039 RMK A01 T10651095  RH  079%=      5-min Rain = 0
KLE1 141339Z 09004KT M07/M09 A3039 RMK A01 T10651094  RH  080%=      5-min Rain = 0
KLE1 141340Z 09004KT M07/M10 A3039 RMK A01 T10651095  RH  079%=      5-min Rain = 0
KLE1 141341Z 09004KT M06/M10 A3039 RMK A01 T10641095  RH  078%=      5-min Rain = 0
KLE1 141342Z 09004KT M06/M10 A3039 RMK A01 T10641095  RH  078%=      5-min Rain = 0
KLE1 141343Z 09004KT M06/M10 A3039 RMK A01 T10631095  RH  079%=      5-min Rain = 0
KLE1 141344Z 10004KT M06/M10 A3039 RMK A01 T10641097  RH  077%=      5-min Rain = 0
KLE1 141345Z 10004KT M06/M10 A3039 RMK A01 T10631097  RH  077%=      5-min Rain = 0
KLE1 141346Z 09004KT M06/M10 A3039 RMK A01 T10631098  RH  076%=      5-min Rain = 0
KLE1 141347Z 09004KT M06/M10 A3039 RMK A01 T10631098  RH  076%=      5-min Rain = 0
KLE1 141348Z 10004KT M06/M10 A304 RMK A01 T10631096  RH  078%=      5-min Rain = 0
KLE1 141349Z 10005KT M06/M10 A304 RMK A01 T10621097  RH  077%=      5-min Rain = 0
KLE1 141350Z 10005KT M06/M10 A304 RMK A01 T10631098  RH  076%=      5-min Rain = 0
KLE1 141351Z 09004KT M06/M10 A3039 RMK A01 T10621098  RH  076%=      5-min Rain = 0
KLE1 141352Z 09004KT M06/M10 A3039 RMK A01 T10621098  RH  076%=      5-min Rain = 0
KLE1 141353Z 09005KT M06/M10 A304 RMK A01 T10621098  RH  076%=      5-min Rain = 0
KLE1 141354Z 09004KT M06/M10 A304 RMK A01 T10621099  RH  075%=      5-min Rain = 0
KLE1 141355Z 08004KT M06/M10 A304 RMK A01 T10621097  RH  076%=      5-min Rain = 0
KLE1 141356Z 08005KT M06/M10 A304 RMK A01 T10611095  RH  077%=      5-min Rain = 0
KLE1 141357Z 09004KT M06/M10 A304 RMK A01 T10611096  RH  076%=      5-min Rain = 0
KLE1 141358Z 09005KT M06/M10 A304 RMK A01 T10611097  RH  076%=      5-min Rain = 0
KLE1 141359Z 09005KT M06/M10 A304 RMK A01 T10601096  RH  076%=      5-min Rain = 0
KLE1 141400Z 09005KT M06/M10 A304 RMK A01 T10601095  RH  076%=      5-min Rain = 0
KLE1 141401Z 09004KT M06/M10 A304 RMK A01 T10601097  RH  075%=      5-min Rain = 0
KLE1 141402Z 10005KT M06/M10 A304 RMK A01 T10601095  RH  076%=      5-min Rain = 0
KLE1 141403Z 10005KT M06/M10 A304 RMK A01 T10591095  RH  076%=      5-min Rain = 0
KLE1 141404Z 10006KT M06/M10 A304 RMK A01 T10591096  RH  075%=      5-min Rain = 0
KLE1 141405Z 10006KT M06/M10 A304 RMK A01 T10591098  RH  074%=      5-min Rain = 0
KLE1 141406Z 10006KT M06/M10 A304 RMK A01 T10591100  RH  073%=      5-min Rain = 0
KLE1 141407Z 11006KT M06/M10 A304 RMK A01 T10591100  RH  073%=      5-min Rain = 0
KLE1 141408Z 11006KT M06/M10 A304 RMK A01 T10591100  RH  073%=      5-min Rain = 0
KLE1 141409Z 11005KT M06/M10 A304 RMK A01 T10591100  RH  073%=      5-min Rain = 0
KLE1 141410Z 11006KT M06/M10 A304 RMK A01 T10591100  RH  073%=      5-min Rain = 0
KLE1 141411Z 11005KT M06/M10 A304 RMK A01 T10591100  RH  073%=      5-min Rain = 0
KLE1 141412Z 11006KT M06/M10 A304 RMK A01 T10591100  RH  073%=      5-min Rain = 0
KLE1 141413Z 12007KT M06/M10 A304 RMK A01 T10591100  RH  073%=      5-min Rain = 0
KLE1 141414Z 11007KT M06/M10 A304 RMK A01 T10591100  RH  073%=      5-min Rain = 0
KLE1 141415Z 11007KT M06/M10 A304 RMK A01 T10591102  RH  072%=      5-min Rain = 0
KLE1 141416Z 11006KT M06/M10 A304 RMK A01 T10591103  RH  071%=      5-min Rain = 0
KLE1 141417Z 11006KT M06/M10 A304 RMK A01 T10591102  RH  071%=      5-min Rain = 0
KLE1 141418Z 10006KT M06/M10 A304 RMK A01 T10591101  RH  072%=      5-min Rain = 0
KLE1 141419Z 11005KT M06/M10 A304 RMK A01 T10581098  RH  073%=      5-min Rain = 0
KLE1 141420Z 11006KT M06/M10 A304 RMK A01 T10571098  RH  073%=      5-min Rain = 0
KLE1 141421Z 11006KT M06/M10 A304 RMK A01 T10571099  RH  072%=      5-min Rain = 0
KLE1 141422Z 11006KT M06/M10 A304 RMK A01 T10571101  RH  071%=      5-min Rain = 0
KLE1 141423Z 11006KT M06/M10 A304 RMK A01 T10571102  RH  071%=      5-min Rain = 0
KLE1 141424Z 12006KT M06/M10 A304 RMK A01 T10581102  RH  071%=      5-min Rain = 0
KLE1 141425Z 11005KT M06/M10 A304 RMK A01 T10581101  RH  071%=      5-min Rain = 0
KLE1 141426Z 11006KT M06/M10 A304 RMK A01 T10571101  RH  072%=      5-min Rain = 0
KLE1 141427Z 11006KT M06/M10 A304 RMK A01 T10571100  RH  072%=      5-min Rain = 0
KLE1 141428Z 10006KT M06/M10 A304 RMK A01 T10571100  RH  072%=      5-min Rain = 0
KLE1 141429Z 10006KT M06/M10 A304 RMK A01 T10571099  RH  072%=      5-min Rain = 0
KLE1 141430Z 10006KT M06/M10 A304 RMK A01 T10561099  RH  072%=      5-min Rain = 0
KLE1 141431Z 11006KT M06/M10 A304 RMK A01 T10561101  RH  071%=      5-min Rain = 0
KLE1 141432Z 11007KT M06/M10 A304 RMK A01 T10561100  RH  071%=      5-min Rain = 0
KLE1 141433Z 10006KT M06/M10 A304 RMK A01 T10561101  RH  071%=      5-min Rain = 0
KLE1 141434Z 10007KT M06/M10 A304 RMK A01 T10561100  RH  071%=      5-min Rain = 0
KLE1 141435Z 10007KT M06/M10 A304 RMK A01 T10561100  RH  071%=      5-min Rain = 0
KLE1 141436Z 10007KT M06/M10 A304 RMK A01 T10571101  RH  071%=      5-min Rain = 0
KLE1 141437Z 11006KT M06/M10 A304 RMK A01 T10561102  RH  070%=      5-min Rain = 0
KLE1 141438Z 11006KT M06/M10 A304 RMK A01 T10571103  RH  070%=      5-min Rain = 0
KLE1 141439Z 11007KT M06/M10 A304 RMK A01 T10571102  RH  071%=      5-min Rain = 0
KLE1 141440Z 11007KT M06/M10 A304 RMK A01 T10571101  RH  071%=      5-min Rain = 0
KLE1 141441Z 11007KT M06/M10 A304 RMK A01 T10561101  RH  071%=      5-min Rain = 0
KLE1 141442Z 11007KT M06/M10 A304 RMK A01 T10561101  RH  071%=      5-min Rain = 0
KLE1 141443Z 10007KT M06/M10 A304 RMK A01 T10561100  RH  071%=      5-min Rain = 0
KLE1 141444Z 10007KT M06/M10 A304 RMK A01 T10561100  RH  071%=      5-min Rain = 0
KLE1 141445Z 11007KT M06/M10 A304 RMK A01 T10561101  RH  071%=      5-min Rain = 0
KLE1 141446Z 10007KT M06/M10 A304 RMK A01 T10561101  RH  070%=      5-min Rain = 0
KLE1 141447Z 10006KT M06/M10 A304 RMK A01 T10561101  RH  071%=      5-min Rain = 0
KLE1 141448Z 10005KT M06/M10 A304 RMK A01 T10561102  RH  071%=      5-min Rain = 0
KLE1 141449Z 10007KT M06/M10 A304 RMK A01 T10561100  RH  071%=      5-min Rain = 0
KLE1 141450Z 10007KT M06/M10 A304 RMK A01 T10561100  RH  071%=      5-min Rain = 0
KLE1 141451Z 11007KT M06/M10 A304 RMK A01 T10551100  RH  071%=      5-min Rain = 0
KLE1 141452Z 10006KT M06/M10 A304 RMK A01 T10551100  RH  071%=      5-min Rain = 0
KLE1 141453Z 11007KT M06/M10 A304 RMK A01 T10551099  RH  071%=      5-min Rain = 0
KLE1 141454Z 11007KT M06/M10 A304 RMK A01 T10551100  RH  070%=      5-min Rain = 0
KLE1 141455Z 11007KT M05/M10 A304 RMK A01 T10541099  RH  071%=      5-min Rain = 0
KLE1 141456Z 11006KT M05/M10 A304 RMK A01 T10541100  RH  071%=      5-min Rain = 0
KLE1 141457Z 12006KT M05/M10 A304 RMK A01 T10541099  RH  071%=      5-min Rain = 0
KLE1 141458Z 10006KT M05/M10 A3041 RMK A01 T10541098  RH  071%=      5-min Rain = 0
KLE1 141459Z 10006KT M05/M10 A3041 RMK A01 T10541098  RH  071%=      5-min Rain = 0
KLE1 141500Z 10007KT M05/M10 A3041 RMK A01 T10541097  RH  071%=      5-min Rain = 0
KLE1 141501Z 10007KT M05/M10 A3041 RMK A01 T10531097  RH  071%=      5-min Rain = 0
KLE1 141502Z 11006KT M05/M10 A3041 RMK A01 T10531098  RH  070%=      5-min Rain = 0
KLE1 141503Z 11006KT M05/M10 A3041 RMK A01 T10541099  RH  070%=      5-min Rain = 0
KLE1 141504Z 12006KT M05/M10 A3041 RMK A01 T10541100  RH  070%=      5-min Rain = 0
KLE1 141505Z 12006KT M05/M10 A3041 RMK A01 T10541099  RH  070%=      5-min Rain = 0
KLE1 141506Z 12006KT M05/M10 A3041 RMK A01 T10531096  RH  072%=      5-min Rain = 0
KLE1 141507Z 11006KT M05/M10 A3041 RMK A01 T10531097  RH  071%=      5-min Rain = 0
KLE1 141508Z 11006KT M05/M10 A3041 RMK A01 T10531097  RH  071%=      5-min Rain = 0
KLE1 141509Z 11007KT M05/M10 A304 RMK A01 T10531097  RH  071%=      5-min Rain = 0
KLE1 141510Z 12006KT M05/M10 A304 RMK A01 T10531098  RH  070%=      5-min Rain = 0
KLE1 141511Z 11006KT M05/M10 A304 RMK A01 T10531099  RH  070%=      5-min Rain = 0
KLE1 141512Z 11007KT M05/M10 A304 RMK A01 T10531098  RH  071%=      5-min Rain = 0
KLE1 141513Z 11007KT M05/M10 A304 RMK A01 T10531099  RH  070%=      5-min Rain = 0
KLE1 141514Z 11007KT M05/M10 A304 RMK A01 T10531100  RH  070%=      5-min Rain = 0
KLE1 141515Z 11005KT M05/M10 A304 RMK A01 T10531100  RH  069%=      5-min Rain = 0
KLE1 141516Z 12005KT M05/M10 A304 RMK A01 T10531102  RH  069%=      5-min Rain = 0
KLE1 141517Z 11006KT M05/M10 A304 RMK A01 T10531100  RH  069%=      5-min Rain = 0
KLE1 141518Z 12007KT M05/M10 A304 RMK A01 T10531100  RH  069%=      5-min Rain = 0
KLE1 141519Z 12007KT M05/M10 A304 RMK A01 T10521101  RH  069%=      5-min Rain = 0
KLE1 141520Z 11006KT M05/M10 A304 RMK A01 T10521100  RH  069%=      5-min Rain = 0
KLE1 141521Z 11005KT M05/M10 A3041 RMK A01 T10521100  RH  069%=      5-min Rain = 0
KLE1 141522Z 12007KT M05/M10 A3041 RMK A01 T10521099  RH  069%=      5-min Rain = 0
KLE1 141523Z 12007KT M05/M10 A3041 RMK A01 T10511100  RH  069%=      5-min Rain = 0
KLE1 141524Z 12006KT M05/M10 A3041 RMK A01 T10511100  RH  068%=      5-min Rain = 0
KLE1 141525Z 12005KT M05/M10 A3041 RMK A01 T10511100  RH  069%=      5-min Rain = 0
KLE1 141526Z 12005KT M05/M10 A3041 RMK A01 T10511100  RH  068%=      5-min Rain = 0
KLE1 141527Z 12005KT M05/M10 A3041 RMK A01 T10511100  RH  068%=      5-min Rain = 0
KLE1 141528Z 12008KT M05/M10 A3041 RMK A01 T10511101  RH  068%=      5-min Rain = 0
KLE1 141529Z 13007KT M05/M10 A3041 RMK A01 T10511101  RH  068%=      5-min Rain = 0
KLE1 141530Z 13007KT M05/M10 A3041 RMK A01 T10511101  RH  068%=      5-min Rain = 0
KLE1 141531Z 14006KT M05/M10 A3041 RMK A01 T10511102  RH  068%=      5-min Rain = 0
KLE1 141532Z 14005KT M05/M10 A3041 RMK A01 T10521101  RH  068%=      5-min Rain = 0
KLE1 141533Z 13006KT M05/M10 A3041 RMK A01 T10511099  RH  069%=      5-min Rain = 0
KLE1 141534Z 12006KT M05/M10 A3041 RMK A01 T10501099  RH  068%=      5-min Rain = 0
KLE1 141535Z 13006KT M05/M10 A3041 RMK A01 T10501099  RH  068%=      5-min Rain = 0
KLE1 141536Z 14007KT M05/M10 A3041 RMK A01 T10491096  RH  070%=      5-min Rain = 0
KLE1 141537Z 14005KT M05/M10 A3041 RMK A01 T10481097  RH  068%=      5-min Rain = 0
KLE1 141538Z 14005KT M05/M10 A3041 RMK A01 T10481097  RH  068%=      5-min Rain = 0
KLE1 141539Z 13006KT M05/M10 A3041 RMK A01 T10471096  RH  068%=      5-min Rain = 0
KLE1 141540Z 14007KT M05/M10 A3041 RMK A01 T10471100  RH  067%=      5-min Rain = 0
KLE1 141541Z 13007KT M05/M10 A3041 RMK A01 T10481100  RH  067%=      5-min Rain = 0
KLE1 141542Z 14007KT M05/M10 A3041 RMK A01 T10481100  RH  067%=      5-min Rain = 0
KLE1 141543Z 13007KT M05/M10 A304 RMK A01 T10481099  RH  067%=      5-min Rain = 0
KLE1 141544Z 12006KT M05/M10 A304 RMK A01 T10471098  RH  067%=      5-min Rain = 0
KLE1 141545Z 12005KT M05/M10 A304 RMK A01 T10471098  RH  067%=      5-min Rain = 0
KLE1 141546Z 13006KT M05/M10 A304 RMK A01 T10461096  RH  068%=      5-min Rain = 0
KLE1 141547Z 12007KT M05/M10 A304 RMK A01 T10451095  RH  068%=      5-min Rain = 0
KLE1 141548Z 12007KT M05/M10 A304 RMK A01 T10451095  RH  068%=      5-min Rain = 0
KLE1 141549Z 13006KT M05/M10 A304 RMK A01 T10451097  RH  067%=      5-min Rain = 0
KLE1 141550Z 13006KT M05/M10 A304 RMK A01 T10461097  RH  067%=      5-min Rain = 0
KLE1 141551Z 14006KT M05/M09 A304 RMK A01 T10451094  RH  068%=      5-min Rain = 0
KLE1 141552Z 14006KT M04/M09 A304 RMK A01 T10441094  RH  068%=      5-min Rain = 0
KLE1 141553Z 13008KT M04/M10 A304 RMK A01 T10441096  RH  067%=      5-min Rain = 0
KLE1 141554Z 15007KT M05/M10 A304 RMK A01 T10451097  RH  067%=      5-min Rain = 0
KLE1 141555Z 14006KT M05/M10 A304 RMK A01 T10461098  RH  067%=      5-min Rain = 0
KLE1 141556Z 13004KT M05/M10 A304 RMK A01 T10461097  RH  068%=      5-min Rain = 0
KLE1 141557Z 14006KT M05/M10 A304 RMK A01 T10451095  RH  068%=      5-min Rain = 0
KLE1 141558Z 15006KT M05/M10 A304 RMK A01 T10451095  RH  068%=      5-min Rain = 0
KLE1 141559Z 14005KT M04/M09 A304 RMK A01 T10441094  RH  068%=      5-min Rain = 0
KLE1 141600Z 15006KT M04/M10 A304 RMK A01 T10441095  RH  068%=      5-min Rain = 0
KLE1 141601Z 15008KT M04/M09 A3041 RMK A01 T10441094  RH  068%=      5-min Rain = 0
KLE1 141602Z 15006KT M04/M10 A304 RMK A01 T10441097  RH  066%=      5-min Rain = 0
KLE1 141603Z 14007KT M04/M10 A304 RMK A01 T10441097  RH  066%=      5-min Rain = 0
KLE1 141604Z 15007KT M04/M10 A304 RMK A01 T10441096  RH  067%=      5-min Rain = 0
KLE1 141605Z 15007KT M04/M10 A304 RMK A01 T10441096  RH  067%=      5-min Rain = 0
KLE1 141606Z 14006KT M04/M10 A304 RMK A01 T10441096  RH  067%=      5-min Rain = 0
KLE1 141607Z 13006KT M04/M10 A304 RMK A01 T10441097  RH  066%=      5-min Rain = 0
KLE1 141608Z 14005KT M05/M10 A304 RMK A01 T10451096  RH  067%=      5-min Rain = 0
KLE1 141609Z 14008KT M04/M10 A304 RMK A01 T10441095  RH  067%=      5-min Rain = 0
KLE1 141610Z 15006KT M04/M10 A304 RMK A01 T10431095  RH  067%=      5-min Rain = 0
KLE1 141611Z 15005KT M04/M10 A304 RMK A01 T10431096  RH  067%=      5-min Rain = 0
KLE1 141612Z 16006KT M04/M09 A304 RMK A01 T10421092  RH  068%=      5-min Rain = 0
KLE1 141613Z 17006KT M04/M09 A304 RMK A01 T10401092  RH  067%=      5-min Rain = 0
KLE1 141614Z 17006KT M04/M09 A304 RMK A01 T10401094  RH  066%=      5-min Rain = 0
KLE1 141615Z 17006KT M04/M10 A304 RMK A01 T10401095  RH  066%=      5-min Rain = 0
KLE1 141616Z 16006KT M04/M10 A304 RMK A01 T10411095  RH  066%=      5-min Rain = 0
KLE1 141617Z 15006KT M04/M10 A304 RMK A01 T10421096  RH  066%=      5-min Rain = 0
KLE1 141618Z 13006KT M04/M09 A304 RMK A01 T10421094  RH  067%=      5-min Rain = 0
KLE1 141619Z 14007KT M04/M09 A304 RMK A01 T10411094  RH  067%=      5-min Rain = 0
KLE1 141620Z 17006KT M04/M09 A304 RMK A01 T10391091  RH  067%=      5-min Rain = 0
KLE1 141621Z 15006KT M04/M09 A304 RMK A01 T10381092  RH  066%=      5-min Rain = 0
KLE1 141622Z 14007KT M04/M09 A304 RMK A01 T10381093  RH  066%=      5-min Rain = 0
KLE1 141623Z 14006KT M04/M10 A304 RMK A01 T10391095  RH  065%=      5-min Rain = 0
KLE1 141624Z 15007KT M04/M10 A304 RMK A01 T10401096  RH  065%=      5-min Rain = 0
KLE1 141625Z 16007KT M04/M10 A304 RMK A01 T10401095  RH  066%=      5-min Rain = 0
KLE1 141626Z 17006KT M04/M09 A304 RMK A01 T10401094  RH  066%=      5-min Rain = 0
KLE1 141627Z 17006KT M04/M10 A304 RMK A01 T10401095  RH  066%=      5-min Rain = 0
KLE1 141628Z 16006KT M04/M09 A304 RMK A01 T10401094  RH  066%=      5-min Rain = 0
KLE1 141629Z 15006KT M04/M09 A304 RMK A01 T10391092  RH  067%=      5-min Rain = 0
KLE1 141630Z 15006KT M04/M09 A304 RMK A01 T10391093  RH  066%=      5-min Rain = 0
KLE1 141631Z 16004KT M04/M09 A304 RMK A01 T10391093  RH  066%=      5-min Rain = 0
KLE1 141632Z 14004KT M04/M09 A304 RMK A01 T10381091  RH  066%=      5-min Rain = 0
KLE1 141633Z 15003KT M04/M09 A304 RMK A01 T10371091  RH  066%=      5-min Rain = 0
KLE1 141634Z 16006KT M04/M09 A304 RMK A01 T10371092  RH  066%=      5-min Rain = 0
KLE1 141635Z 15005KT M04/M09 A304 RMK A01 T10371092  RH  066%=      5-min Rain = 0
KLE1 141636Z 17006KT M04/M09 A304 RMK A01 T10381093  RH  066%=      5-min Rain = 0
KLE1 141637Z 17005KT M04/M09 A304 RMK A01 T10391094  RH  066%=      5-min Rain = 0
KLE1 141638Z 16006KT M04/M09 A304 RMK A01 T10401094  RH  066%=      5-min Rain = 0
KLE1 141639Z 15007KT M04/M09 A304 RMK A01 T10391092  RH  067%=      5-min Rain = 0
KLE1 141640Z 14005KT M04/M09 A304 RMK A01 T10381092  RH  066%=      5-min Rain = 0
KLE1 141641Z 15005KT M04/M09 A304 RMK A01 T10381091  RH  067%=      5-min Rain = 0
KLE1 141642Z 15005KT M04/M09 A304 RMK A01 T10381091  RH  066%=      5-min Rain = 0
KLE1 141643Z 16005KT M04/M09 A3039 RMK A01 T10371091  RH  066%=      5-min Rain = 0
KLE1 141644Z 14004KT M04/M09 A3039 RMK A01 T10371091  RH  066%=      5-min Rain = 0
KLE1 141645Z 13004KT M04/M09 A3039 RMK A01 T10371092  RH  066%=      5-min Rain = 0
KLE1 141646Z 11005KT M04/M09 A3039 RMK A01 T10371091  RH  066%=      5-min Rain = 0
KLE1 141647Z 11006KT M04/M09 A3039 RMK A01 T10371090  RH  067%=      5-min Rain = 0
KLE1 141648Z 12004KT M04/M09 A3039 RMK A01 T10371090  RH  067%=      5-min Rain = 0
KLE1 141649Z 13004KT M04/M09 A3039 RMK A01 T10371090  RH  066%=      5-min Rain = 0
KLE1 141650Z 14004KT M04/M09 A3039 RMK A01 T10371090  RH  067%=      5-min Rain = 0
KLE1 141651Z 14006KT M04/M09 A3039 RMK A01 T10361089  RH  067%=      5-min Rain = 0
KLE1 141652Z 13005KT M04/M09 A3039 RMK A01 T10351089  RH  066%=      5-min Rain = 0
KLE1 141653Z 14005KT M04/M09 A3039 RMK A01 T10361092  RH  065%=      5-min Rain = 0
KLE1 141654Z 14006KT M04/M09 A3039 RMK A01 T10351088  RH  067%=      5-min Rain = 0
KLE1 141655Z 14005KT M03/M09 A3039 RMK A01 T10341087  RH  066%=      5-min Rain = 0
KLE1 141656Z 13006KT M03/M09 A3039 RMK A01 T10341088  RH  066%=      5-min Rain = 0
KLE1 141657Z 14006KT M03/M09 A3039 RMK A01 T10341089  RH  066%=      5-min Rain = 0
KLE1 141658Z 13005KT M03/M09 A3039 RMK A01 T10341089  RH  066%=      5-min Rain = 0
KLE1 141659Z 13005KT M03/M09 A3039 RMK A01 T10331087  RH  066%=      5-min Rain = 0
KLE1 141700Z 14006KT M03/M09 A3039 RMK A01 T10331088  RH  066%=      5-min Rain = 0
KLE1 141701Z 14007KT M03/M09 A3039 RMK A01 T10321086  RH  066%=      5-min Rain = 0
KLE1 141702Z 14008KT M03/M09 A3039 RMK A01 T10301085  RH  066%=      5-min Rain = 0
KLE1 141703Z 14006KT M03/M09 A3039 RMK A01 T10301088  RH  064%=      5-min Rain = 0
KLE1 141704Z 13006KT M03/M09 A3038 RMK A01 T10321088  RH  065%=      5-min Rain = 0
KLE1 141705Z 13007KT M03/M09 A3038 RMK A01 T10301085  RH  066%=      5-min Rain = 0
KLE1 141706Z 14006KT M03/M08 A3038 RMK A01 T10291083  RH  066%=      5-min Rain = 0
KLE1 141707Z 13008KT M03/M08 A3038 RMK A01 T10281084  RH  065%=      5-min Rain = 0
KLE1 141708Z 14006KT M03/M08 A3038 RMK A01 T10281084  RH  065%=      5-min Rain = 0
KLE1 141709Z 14007KT M03/M09 A3038 RMK A01 T10271085  RH  064%=      5-min Rain = 0
KLE1 141710Z 14007KT M03/M09 A3038 RMK A01 T10281087  RH  064%=      5-min Rain = 0
KLE1 141711Z 14006KT M03/M09 A3038 RMK A01 T10281085  RH  065%=      5-min Rain = 0
KLE1 141712Z 13006KT M03/M08 A3038 RMK A01 T10261084  RH  065%=      5-min Rain = 0
KLE1 141713Z 13005KT M03/M08 A3038 RMK A01 T10261084  RH  065%=      5-min Rain = 0
KLE1 141714Z 13006KT M03/M08 A3038 RMK A01 T10251081  RH  065%=      5-min Rain = 0
KLE1 141715Z 12006KT M02/M08 A3038 RMK A01 T10241083  RH  064%=      5-min Rain = 0
KLE1 141716Z 13008KT M03/M08 A3038 RMK A01 T10251084  RH  064%=      5-min Rain = 0
KLE1 141717Z 12008KT M03/M08 A3038 RMK A01 T10251084  RH  064%=      5-min Rain = 0
KLE1 141718Z 13008KT M02/M08 A3038 RMK A01 T10241082  RH  065%=      5-min Rain = 0
KLE1 141719Z 14007KT M02/M08 A3038 RMK A01 T10231082  RH  064%=      5-min Rain = 0
KLE1 141720Z 15009KT M02/M08 A3037 RMK A01 T10231082  RH  064%=      5-min Rain = 0
KLE1 141721Z 14010KT M02/M08 A3037 RMK A01 T10211079  RH  064%=      5-min Rain = 0
KLE1 141722Z 14009KT M02/M08 A3037 RMK A01 T10201081  RH  063%=      5-min Rain = 0
KLE1 141723Z 13007KT M02/M08 A3037 RMK A01 T10221084  RH  062%=      5-min Rain = 0
KLE1 141724Z 13009KT M02/M08 A3037 RMK A01 T10231083  RH  063%=      5-min Rain = 0
KLE1 141725Z 13009KT M02/M08 A3037 RMK A01 T10221080  RH  064%=      5-min Rain = 0
KLE1 141726Z 14009KT M02/M08 A3037 RMK A01 T10211080  RH  064%=      5-min Rain = 0
KLE1 141727Z 14009KT M02/M08 A3037 RMK A01 T10211080  RH  064%=      5-min Rain = 0
KLE1 141728Z 13010KT M02/M08 A3037 RMK A01 T10181078  RH  064%=      5-min Rain = 0
KLE1 141729Z 12008KT M02/M08 A3036 RMK A01 T10181080  RH  063%=      5-min Rain = 0
KLE1 141730Z 13006KT M02/M08 A3036 RMK A01 T10181079  RH  063%=      5-min Rain = 0
KLE1 141731Z 15009KT M02/M08 A3036 RMK A01 T10171077  RH  064%=      5-min Rain = 0
KLE1 141732Z 15010KT M02/M08 A3036 RMK A01 T10151076  RH  063%=      5-min Rain = 0
KLE1 141733Z 15010KT M02/M08 A3036 RMK A01 T10151079  RH  062%=      5-min Rain = 0
KLE1 141734Z 14010KT M02/M08 A3036 RMK A01 T10161080  RH  062%=      5-min Rain = 0
KLE1 141735Z 14008KT M02/M08 A3036 RMK A01 T10161078  RH  063%=      5-min Rain = 0
KLE1 141736Z 15008KT M01/M08 A3036 RMK A01 T10141075  RH  063%=      5-min Rain = 0
KLE1 141737Z 14007KT M01/M08 A3036 RMK A01 T10141077  RH  062%=      5-min Rain = 0
KLE1 141738Z 14009KT M01/M07 A3036 RMK A01 T10131074  RH  063%=      5-min Rain = 0
KLE1 141739Z 16010KT M01/M07 A3036 RMK A01 T10111074  RH  062%=      5-min Rain = 0
KLE1 141740Z 15009KT M01/M08 A3036 RMK A01 T10121077  RH  062%=      5-min Rain = 0
KLE1 141741Z 15009KT M01/M08 A3036 RMK A01 T10141077  RH  062%=      5-min Rain = 0
KLE1 141742Z 15011KT M01/M08 A3036 RMK A01 T10141076  RH  063%=      5-min Rain = 0
KLE1 141743Z 13009KT M01/M08 A3036 RMK A01 T10141078  RH  062%=      5-min Rain = 0
KLE1 141744Z 15008KT M02/M08 A3036 RMK A01 T10161078  RH  063%=      5-min Rain = 0
KLE1 141745Z 16009KT M01/M07 A3036 RMK A01 T10141074  RH  064%=      5-min Rain = 0
KLE1 141746Z 16007KT M01/M07 A3036 RMK A01 T10131074  RH  063%=      5-min Rain = 0
KLE1 141747Z 16008KT M01/M08 A3036 RMK A01 T10131075  RH  062%=      5-min Rain = 0
KLE1 141748Z 16008KT M01/M08 A3036 RMK A01 T10141077  RH  062%=      5-min Rain = 0
KLE1 141749Z 15008KT M01/M08 A3036 RMK A01 T10141076  RH  063%=      5-min Rain = 0
KLE1 141750Z 16006KT M01/M08 A3036 RMK A01 T10141077  RH  062%=      5-min Rain = 0
KLE1 141751Z 15010KT M01/M08 A3036 RMK A01 T10141075  RH  063%=      5-min Rain = 0
KLE1 141752Z 16011KT M01/M08 A3036 RMK A01 T10141075  RH  063%=      5-min Rain = 0
KLE1 141753Z 17008KT M01/M08 A3036 RMK A01 T10141076  RH  063%=      5-min Rain = 0
KLE1 141754Z 16008KT M01/M07 A3036 RMK A01 T10141074  RH  064%=      5-min Rain = 0
KLE1 141755Z 15007KT M01/M07 A3036 RMK A01 T10131074  RH  063%=      5-min Rain = 0
KLE1 141756Z 13010KT M01/M07 A3035 RMK A01 T10131073  RH  064%=      5-min Rain = 0
KLE1 141757Z 14009KT M01/M07 A3035 RMK A01 T10121073  RH  063%=      5-min Rain = 0
KLE1 141758Z 15007KT M01/M07 A3035 RMK A01 T10131074  RH  063%=      5-min Rain = 0
KLE1 141759Z 14007KT M01/M07 A3035 RMK A01 T10131073  RH  064%=      5-min Rain = 0
KLE1 141800Z 16010KT M01/M07 A3035 RMK A01 T10101068  RH  065%=      5-min Rain = 0
KLE1 141801Z 16009KT M01/M07 A3035 RMK A01 T10091069  RH  064%=      5-min Rain = 0
KLE1 141802Z 15010KT M01/M07 A3035 RMK A01 T10081068  RH  064%=      5-min Rain = 0
KLE1 141803Z 15009KT M01/M07 A3035 RMK A01 T10081072  RH  062%=      5-min Rain = 0
KLE1 141804Z 16009KT M01/M07 A3035 RMK A01 T10101073  RH  062%=      5-min Rain = 0
KLE1 141805Z 15009KT M01/M07 A3035 RMK A01 T10091071  RH  063%=      5-min Rain = 0
KLE1 141806Z 16007KT M01/M07 A3035 RMK A01 T10091072  RH  063%=      5-min Rain = 0
KLE1 141807Z 15007KT M01/M07 A3035 RMK A01 T10101072  RH  063%=      5-min Rain = 0
KLE1 141808Z 16009KT M01/M07 A3035 RMK A01 T10091070  RH  063%=      5-min Rain = 0
KLE1 141809Z 16008KT M01/M07 A3035 RMK A01 T10071069  RH  063%=      5-min Rain = 0
KLE1 141810Z 15009KT M01/M07 A3035 RMK A01 T10081071  RH  062%=      5-min Rain = 0
KLE1 141811Z 15008KT M01/M07 A3035 RMK A01 T10081068  RH  064%=      5-min Rain = 0
KLE1 141812Z 13009KT M01/M07 A3034 RMK A01 T10061067  RH  063%=      5-min Rain = 0
KLE1 141813Z 14009KT M01/M07 A3034 RMK A01 T10081071  RH  062%=      5-min Rain = 0
KLE1 141814Z 16011KT M01/M07 A3034 RMK A01 T10081068  RH  064%=      5-min Rain = 0
KLE1 141815Z 16011KT M01/M07 A3034 RMK A01 T10071068  RH  064%=      5-min Rain = 0
KLE1 141816Z 18008KT M01/M07 A3034 RMK A01 T10081068  RH  063%=      5-min Rain = 0
KLE1 141817Z 15008KT M01/M07 A3034 RMK A01 T10071067  RH  064%=      5-min Rain = 0
KLE1 141818Z 14007KT M01/M07 A3034 RMK A01 T10071069  RH  063%=      5-min Rain = 0
KLE1 141819Z 15009KT M01/M07 A3034 RMK A01 T10071069  RH  063%=      5-min Rain = 0
KLE1 141820Z 16010KT M01/M07 A3034 RMK A01 T10081070  RH  063%=      5-min Rain = 0
KLE1 141821Z 15009KT M01/M07 A3034 RMK A01 T10071069  RH  063%=      5-min Rain = 0
KLE1 141822Z 16007KT M01/M07 A3034 RMK A01 T10081070  RH  063%=      5-min Rain = 0
KLE1 141823Z 16007KT M01/M07 A3034 RMK A01 T10081069  RH  063%=      5-min Rain = 0
KLE1 141824Z 15010KT M01/M07 A3034 RMK A01 T10071066  RH  064%=      5-min Rain = 0
KLE1 141825Z 15010KT M01/M07 A3034 RMK A01 T10051066  RH  063%=      5-min Rain = 0
KLE1 141826Z 15008KT M00/M07 A3034 RMK A01 T10041065  RH  063%=      5-min Rain = 0
KLE1 141827Z 16008KT M00/M06 A3034 RMK A01 T10011063  RH  063%=      5-min Rain = 0
KLE1 141828Z 15006KT M00/M07 A3033 RMK A01 T10011067  RH  061%=      5-min Rain = 0
KLE1 141829Z 13007KT M00/M06 A3033 RMK A01 T10021064  RH  063%=      5-min Rain = 0
KLE1 141830Z 14009KT M00/M06 A3033 RMK A01 T10011064  RH  062%=      5-min Rain = 0
KLE1 141831Z 17010KT M00/M06 A3033 RMK A01 T10011064  RH  062%=      5-min Rain = 0
KLE1 141832Z 18010KT M00/M06 A3033 RMK A01 T10011064  RH  062%=      5-min Rain = 0
KLE1 141833Z 17010KT M00/M06 A3033 RMK A01 T10021064  RH  063%=      5-min Rain = 0
KLE1 141834Z 16010KT M00/M07 A3033 RMK A01 T10031065  RH  063%=      5-min Rain = 0
KLE1 141835Z 15010KT M00/M06 A3033 RMK A01 T10021063  RH  063%=      5-min Rain = 0
KLE1 141836Z 16008KT M00/M07 A3033 RMK A01 T10031066  RH  062%=      5-min Rain = 0
KLE1 141837Z 16008KT M01/M07 A3033 RMK A01 T10051068  RH  063%=      5-min Rain = 0
KLE1 141838Z 16009KT M01/M07 A3032 RMK A01 T10051065  RH  064%=      5-min Rain = 0
KLE1 141839Z 16009KT M00/M06 A3032 RMK A01 T10031064  RH  064%=      5-min Rain = 0
KLE1 141840Z 15009KT M00/M06 A3032 RMK A01 T10021063  RH  064%=      5-min Rain = 0
KLE1 141841Z 14007KT M00/M06 A3032 RMK A01 T10021064  RH  063%=      5-min Rain = 0
KLE1 141842Z 15006G11KT M00/M07 A3032 RMK A01 T10031065  RH  063%=      5-min Rain = 0
KLE1 141843Z 16009G15KT M00/M06 A3032 RMK A01 T10021062  RH  064%=      5-min Rain = 0
KLE1 141844Z 16011KT 00/M06 A3032 RMK A01 T00031057  RH  064%=      5-min Rain = 0
KLE1 141845Z 15008KT 00/M06 A3032 RMK A01 T00041059  RH  062%=      5-min Rain = 0
KLE1 141846Z 16008KT 00/M06 A3032 RMK A01 T00021062  RH  062%=      5-min Rain = 0
KLE1 141847Z 16010KT 00/M06 A3032 RMK A01 T00021061  RH  062%=      5-min Rain = 0
KLE1 141848Z 16007KT 00/M06 A3032 RMK A01 T00031060  RH  062%=      5-min Rain = 0
KLE1 141849Z 16006KT 01/M06 A3032 RMK A01 T00051060  RH  062%=      5-min Rain = 0
KLE1 141850Z 15007KT 00/M06 A3032 RMK A01 T00041062  RH  061%=      5-min Rain = 0
KLE1 141851Z 17007KT 01/M06 A3031 RMK A01 T00061056  RH  063%=      5-min Rain = 0
KLE1 141852Z 17007KT 01/M06 A3031 RMK A01 T00081057  RH  062%=      5-min Rain = 0
KLE1 141853Z 15008KT 01/M06 A3031 RMK A01 T00091058  RH  061%=      5-min Rain = 0
KLE1 141854Z 13009KT 01/M06 A3031 RMK A01 T00081060  RH  060%=      5-min Rain = 0
KLE1 141855Z 14006KT 01/M06 A3031 RMK A01 T00051062  RH  060%=      5-min Rain = 0
KLE1 141856Z 14005KT 00/M06 A3031 RMK A01 T00031063  RH  061%=      5-min Rain = 0
KLE1 141857Z 16006KT 00/M06 A3031 RMK A01 T00031062  RH  062%=      5-min Rain = 0
KLE1 141858Z 16007KT 00/M06 A3031 RMK A01 T00031061  RH  062%=      5-min Rain = 0
KLE1 141859Z 17009KT 01/M06 A3031 RMK A01 T00071055  RH  063%=      5-min Rain = 0
KLE1 141900Z 17010KT 01/M06 A3031 RMK A01 T00091055  RH  063%=      5-min Rain = 0
KLE1 141901Z 18007KT 01/M06 A3031 RMK A01 T00101055  RH  062%=      5-min Rain = 0
KLE1 141902Z 18009KT 01/M06 A3031 RMK A01 T00091055  RH  062%=      5-min Rain = 0
KLE1 141903Z 17009KT 01/M06 A3031 RMK A01 T00091056  RH  062%=      5-min Rain = 0
KLE1 141904Z 16008KT 01/M06 A303 RMK A01 T00071058  RH  062%=      5-min Rain = 0
KLE1 141905Z 16007KT 01/M06 A303 RMK A01 T00061057  RH  063%=      5-min Rain = 0
KLE1 141906Z 17008KT 01/M05 A303 RMK A01 T00081054  RH  063%=      5-min Rain = 0
KLE1 141907Z 17009KT 01/M05 A303 RMK A01 T00091053  RH  063%=      5-min Rain = 0
KLE1 141908Z 16008KT 01/M06 A303 RMK A01 T00091055  RH  062%=      5-min Rain = 0
KLE1 141909Z 17009G17KT 01/M06 A303 RMK A01 T00081056  RH  062%=      5-min Rain = 0
KLE1 141910Z 17008KT 01/M05 A303 RMK A01 T00091053  RH  063%=      5-min Rain = 0
KLE1 141911Z 17009KT 01/M05 A303 RMK A01 T00121051  RH  063%=      5-min Rain = 0
KLE1 141912Z 17009KT 01/M05 A303 RMK A01 T00121053  RH  062%=      5-min Rain = 0
KLE1 141913Z 19010KT 01/M05 A303 RMK A01 T00101054  RH  062%=      5-min Rain = 0
KLE1 141914Z 19008KT 01/M06 A303 RMK A01 T00081056  RH  062%=      5-min Rain = 0
KLE1 141915Z 16007KT 01/M06 A303 RMK A01 T00071055  RH  063%=      5-min Rain = 0
KLE1 141916Z 16008KT 01/M05 A303 RMK A01 T00081054  RH  063%=      5-min Rain = 0
KLE1 141917Z 15008KT 01/M05 A3029 RMK A01 T00091053  RH  063%=      5-min Rain = 0
KLE1 141918Z 16009KT 01/M05 A3029 RMK A01 T00101053  RH  063%=      5-min Rain = 0
KLE1 141919Z 16010KT 01/M05 A3029 RMK A01 T00141047  RH  064%=      5-min Rain = 0
KLE1 141920Z 17009KT 02/M05 A3029 RMK A01 T00151049  RH  062%=      5-min Rain = 0
KLE1 141921Z 16008KT 01/M05 A3029 RMK A01 T00141050  RH  062%=      5-min Rain = 0
KLE1 141922Z 16011KT 02/M05 A3029 RMK A01 T00151049  RH  062%=      5-min Rain = 0
KLE1 141923Z 17010KT 02/M05 A3029 RMK A01 T00151050  RH  062%=      5-min Rain = 0
KLE1 141924Z 16009KT 02/M05 A3029 RMK A01 T00151050  RH  062%=      5-min Rain = 0
KLE1 141925Z 16010KT 01/M05 A3028 RMK A01 T00141050  RH  062%=      5-min Rain = 0
KLE1 141926Z 17008KT 02/M05 A3028 RMK A01 T00151046  RH  064%=      5-min Rain = 0
KLE1 141927Z 18009KT 02/M04 A3028 RMK A01 T00191043  RH  063%=      5-min Rain = 0
KLE1 141928Z 16008KT 02/M04 A3028 RMK A01 T00231041  RH  063%=      5-min Rain = 0
KLE1 141929Z 16008KT 02/M04 A3028 RMK A01 T00241044  RH  061%=      5-min Rain = 0
KLE1 141930Z 15008KT 02/M05 A3028 RMK A01 T00211048  RH  060%=      5-min Rain = 0
KLE1 141931Z 16012KT 02/M05 A3028 RMK A01 T00201046  RH  062%=      5-min Rain = 0
KLE1 141932Z 16012KT 02/M05 A3028 RMK A01 T00211045  RH  062%=      5-min Rain = 0
KLE1 141933Z 16011KT 02/M05 A3028 RMK A01 T00201047  RH  061%=      5-min Rain = 0
KLE1 141934Z 16010KT 02/M05 A3028 RMK A01 T00171047  RH  062%=      5-min Rain = 0
KLE1 141935Z 16011KT 02/M04 A3028 RMK A01 T00191043  RH  063%=      5-min Rain = 0
KLE1 141936Z 15011KT 02/M04 A3028 RMK A01 T00211043  RH  062%=      5-min Rain = 0
KLE1 141937Z 15008KT 02/M05 A3028 RMK A01 T00201045  RH  062%=      5-min Rain = 0
KLE1 141938Z 17008KT 02/M05 A3028 RMK A01 T00201045  RH  062%=      5-min Rain = 0
KLE1 141939Z 17009KT 02/M04 A3028 RMK A01 T00201044  RH  062%=      5-min Rain = 0
KLE1 141940Z 19008KT 02/M04 A3028 RMK A01 T00201044  RH  063%=      5-min Rain = 0
KLE1 141941Z 18010KT 02/M04 A3028 RMK A01 T00201043  RH  063%=      5-min Rain = 0
KLE1 141942Z 18010KT 02/M04 A3028 RMK A01 T00201044  RH  062%=      5-min Rain = 0
KLE1 141943Z 18010KT 02/M05 A3028 RMK A01 T00191045  RH  063%=      5-min Rain = 0
KLE1 141944Z 19009KT 02/M04 A3028 RMK A01 T00201042  RH  064%=      5-min Rain = 0
KLE1 141945Z 19008KT 02/M04 A3028 RMK A01 T00221039  RH  064%=      5-min Rain = 0
KLE1 141946Z 19008KT 02/M04 A3028 RMK A01 T00241039  RH  063%=      5-min Rain = 0
KLE1 141947Z 16009KT 03/M04 A3028 RMK A01 T00261039  RH  062%=      5-min Rain = 0
KLE1 141948Z 16008KT 03/M04 A3028 RMK A01 T00261041  RH  061%=      5-min Rain = 0
KLE1 141949Z 18010KT 02/M04 A3027 RMK A01 T00241042  RH  062%=      5-min Rain = 0
KLE1 141950Z 18010KT 03/M04 A3027 RMK A01 T00251038  RH  063%=      5-min Rain = 0
KLE1 141951Z 18012KT 03/M04 A3027 RMK A01 T00261039  RH  062%=      5-min Rain = 0
KLE1 141952Z 17010KT 02/M04 A3027 RMK A01 T00241042  RH  062%=      5-min Rain = 0
KLE1 141953Z 17011KT 02/M04 A3027 RMK A01 T00231041  RH  062%=      5-min Rain = 0
KLE1 141954Z 18012KT 02/M04 A3027 RMK A01 T00231040  RH  063%=      5-min Rain = 0
KLE1 141955Z 17013KT 03/M04 A3027 RMK A01 T00261036  RH  064%=      5-min Rain = 0
KLE1 141956Z 17011KT 03/M04 A3027 RMK A01 T00271038  RH  062%=      5-min Rain = 0
KLE1 141957Z 17009KT 03/M04 A3027 RMK A01 T00251040  RH  062%=      5-min Rain = 0
KLE1 141958Z 19008KT 02/M04 A3027 RMK A01 T00241040  RH  063%=      5-min Rain = 0
KLE1 141959Z 19010KT 02/M04 A3027 RMK A01 T00231040  RH  063%=      5-min Rain = 0
KLE1 142000Z 17011KT 02/M04 A3027 RMK A01 T00241039  RH  063%=      5-min Rain = 0
KLE1 142001Z 17007KT 03/M04 A3027 RMK A01 T00251038  RH  063%=      5-min Rain = 0
KLE1 142002Z 18011KT 03/M04 A3026 RMK A01 T00261038  RH  063%=      5-min Rain = 0
KLE1 142003Z 17009KT 03/M04 A3026 RMK A01 T00261038  RH  063%=      5-min Rain = 0
KLE1 142004Z 17010KT 03/M04 A3026 RMK A01 T00271037  RH  063%=      5-min Rain = 0
KLE1 142005Z 17014KT 03/M04 A3026 RMK A01 T00271036  RH  063%=      5-min Rain = 0
KLE1 142006Z 17012KT 03/M04 A3026 RMK A01 T00271037  RH  063%=      5-min Rain = 0
KLE1 142007Z 17012KT 03/M04 A3026 RMK A01 T00281035  RH  063%=      5-min Rain = 0
KLE1 142008Z 18010KT 03/M04 A3026 RMK A01 T00281035  RH  063%=      5-min Rain = 0
KLE1 142009Z 17011KT 03/M03 A3026 RMK A01 T00301033  RH  064%=      5-min Rain = 0
KLE1 142010Z 17009KT 03/M03 A3026 RMK A01 T00321033  RH  062%=      5-min Rain = 0
KLE1 142011Z 16011KT 03/M03 A3026 RMK A01 T00311034  RH  062%=      5-min Rain = 0
KLE1 142012Z 17012G17KT 03/M03 A3026 RMK A01 T00311034  RH  062%=      5-min Rain = 0
KLE1 142013Z 17010KT 03/M04 A3025 RMK A01 T00311035  RH  062%=      5-min Rain = 0
KLE1 142014Z 18010KT 03/M03 A3025 RMK A01 T00301034  RH  063%=      5-min Rain = 0
KLE1 142015Z 18011KT 03/M03 A3025 RMK A01 T00301034  RH  063%=      5-min Rain = 0
KLE1 142016Z 16010KT 03/M03 A3025 RMK A01 T00301033  RH  063%=      5-min Rain = 0
KLE1 142017Z 18011KT 03/M03 A3025 RMK A01 T00321030  RH  064%=      5-min Rain = 0
KLE1 142018Z 18012KT 03/M03 A3025 RMK A01 T00341030  RH  063%=      5-min Rain = 0
KLE1 142019Z 19009KT 03/M03 A3025 RMK A01 T00331032  RH  062%=      5-min Rain = 0
KLE1 142020Z 19008KT 03/M03 A3025 RMK A01 T00331031  RH  063%=      5-min Rain = 0
KLE1 142021Z 19010KT 03/M03 A3025 RMK A01 T00341031  RH  063%=      5-min Rain = 0
KLE1 142022Z 18012KT 04/M03 A3025 RMK A01 T00351031  RH  062%=      5-min Rain = 0
KLE1 142023Z 18011KT 03/M03 A3025 RMK A01 T00341031  RH  062%=      5-min Rain = 0
KLE1 142024Z 18014KT 04/M03 A3025 RMK A01 T00351028  RH  063%=      5-min Rain = 0
KLE1 142025Z 18010KT 04/M03 A3025 RMK A01 T00361029  RH  062%=      5-min Rain = 0
KLE1 142026Z 18009KT 04/M03 A3025 RMK A01 T00351030  RH  062%=      5-min Rain = 0
KLE1 142027Z 17009KT 04/M03 A3025 RMK A01 T00371027  RH  063%=      5-min Rain = 0
KLE1 142028Z 19012KT 04/M03 A3025 RMK A01 T00401025  RH  063%=      5-min Rain = 0
KLE1 142029Z 18011KT 04/M03 A3024 RMK A01 T00411025  RH  062%=      5-min Rain = 0
KLE1 142030Z 17013KT 04/M03 A3024 RMK A01 T00411025  RH  062%=      5-min Rain = 0
KLE1 142031Z 17014KT 04/M03 A3024 RMK A01 T00401027  RH  062%=      5-min Rain = 0
KLE1 142032Z 17016KT 04/M03 A3024 RMK A01 T00401026  RH  062%=      5-min Rain = 0
KLE1 142033Z 18015KT 04/M03 A3024 RMK A01 T00401026  RH  062%=      5-min Rain = 0
KLE1 142034Z 18016KT 04/M03 A3024 RMK A01 T00401025  RH  063%=      5-min Rain = 0
KLE1 142035Z 19013KT 04/M02 A3024 RMK A01 T00411024  RH  063%=      5-min Rain = 0
KLE1 142036Z 18013KT 04/M03 A3024 RMK A01 T00411025  RH  062%=      5-min Rain = 0
KLE1 142037Z 19012KT 04/M02 A3024 RMK A01 T00421022  RH  063%=      5-min Rain = 0
KLE1 142038Z 20013KT 04/M02 A3024 RMK A01 T00431022  RH  062%=      5-min Rain = 0
KLE1 142039Z 20014KT 04/M02 A3024 RMK A01 T00431024  RH  062%=      5-min Rain = 0
KLE1 142040Z 20012KT 04/M02 A3024 RMK A01 T00421024  RH  062%=      5-min Rain = 0
KLE1 142041Z 18014KT 04/M02 A3024 RMK A01 T00411023  RH  063%=      5-min Rain = 0
KLE1 142042Z 18014KT 04/M02 A3024 RMK A01 T00421023  RH  062%=      5-min Rain = 0
KLE1 142043Z 18015KT 04/M02 A3023 RMK A01 T00431022  RH  062%=      5-min Rain = 0
KLE1 142044Z 18014KT 04/M02 A3023 RMK A01 T00431023  RH  062%=      5-min Rain = 0
KLE1 142045Z 19015KT 04/M02 A3023 RMK A01 T00431022  RH  062%=      5-min Rain = 0
KLE1 142046Z 18013KT 04/M02 A3023 RMK A01 T00441022  RH  062%=      5-min Rain = 0
KLE1 142047Z 18014KT 04/M02 A3023 RMK A01 T00441022  RH  062%=      5-min Rain = 0
KLE1 142048Z 19012KT 04/M02 A3023 RMK A01 T00431022  RH  062%=      5-min Rain = 0
KLE1 142049Z 18015KT 04/M02 A3023 RMK A01 T00441021  RH  063%=      5-min Rain = 0
KLE1 142050Z 18015KT 04/M02 A3023 RMK A01 T00441021  RH  063%=      5-min Rain = 0
KLE1 142051Z 17013KT 05/M02 A3023 RMK A01 T00451020  RH  063%=      5-min Rain = 0
KLE1 142052Z 17014KT 05/M02 A3023 RMK A01 T00451020  RH  062%=      5-min Rain = 0
KLE1 142053Z 20016KT 05/M02 A3023 RMK A01 T00461019  RH  063%=      5-min Rain = 0
KLE1 142054Z 21013KT 05/M02 A3023 RMK A01 T00471019  RH  062%=      5-min Rain = 0
KLE1 142055Z 22011KT 05/M02 A3023 RMK A01 T00461021  RH  062%=      5-min Rain = 0
KLE1 142056Z 21012KT 04/M02 A3023 RMK A01 T00441021  RH  062%=      5-min Rain = 0
KLE1 142057Z 19012KT 05/M02 A3023 RMK A01 T00451019  RH  063%=      5-min Rain = 0
KLE1 142058Z 20016KT 05/M02 A3022 RMK A01 T00471017  RH  063%=      5-min Rain = 0
KLE1 142059Z 20016KT 05/M02 A3022 RMK A01 T00481017  RH  063%=      5-min Rain = 0
KLE1 142100Z 20015KT 05/M02 A3022 RMK A01 T00501015  RH  062%=      5-min Rain = 0
KLE1 142101Z 20012KT 05/M01 A3022 RMK A01 T00531014  RH  062%=      5-min Rain = 0
KLE1 142102Z 21015G20KT 06/M01 A3022 RMK A01 T00571012  RH  061%=      5-min Rain = 0
KLE1 142103Z 21016KT 06/M01 A3022 RMK A01 T00591013  RH  060%=      5-min Rain = 0
KLE1 142104Z 21014KT 06/M02 A3022 RMK A01 T00571017  RH  059%=      5-min Rain = 0
KLE1 142105Z 22014KT 06/M02 A3022 RMK A01 T00561016  RH  060%=      5-min Rain = 0
KLE1 142106Z 22016KT 06/M01 A3022 RMK A01 T00571014  RH  060%=      5-min Rain = 0
KLE1 142107Z 21016KT 06/M02 A3022 RMK A01 T00571015  RH  059%=      5-min Rain = 0
KLE1 142108Z 20013KT 06/M02 A3022 RMK A01 T00571015  RH  060%=      5-min Rain = 0
KLE1 142109Z 20012KT 06/M02 A3022 RMK A01 T00571016  RH  059%=      5-min Rain = 0
KLE1 142110Z 20015KT 06/M02 A3022 RMK A01 T00571016  RH  060%=      5-min Rain = 0
KLE1 142111Z 21015KT 06/M02 A3022 RMK A01 T00571015  RH  060%=      5-min Rain = 0
KLE1 142112Z 21013KT 06/M02 A3022 RMK A01 T00561017  RH  060%=      5-min Rain = 0
KLE1 142113Z 19013KT 06/M01 A3022 RMK A01 T00571014  RH  060%=      5-min Rain = 0
KLE1 142114Z 20013KT 06/M02 A3022 RMK A01 T00561016  RH  060%=      5-min Rain = 0
KLE1 142115Z 20010KT 06/M02 A3021 RMK A01 T00551015  RH  061%=      5-min Rain = 0
KLE1 142116Z 22011KT 06/M01 A3021 RMK A01 T00561014  RH  061%=      5-min Rain = 0
KLE1 142117Z 20011KT 06/M01 A3021 RMK A01 T00581013  RH  060%=      5-min Rain = 0
KLE1 142118Z 22012KT 06/M01 A3021 RMK A01 T00631010  RH  060%=      5-min Rain = 0
KLE1 142119Z 21012G18KT 06/M01 A3021 RMK A01 T00621013  RH  058%=      5-min Rain = 0
KLE1 142120Z 21015KT 06/M01 A3021 RMK A01 T00621013  RH  059%=      5-min Rain = 0
KLE1 142121Z 21012KT 06/M01 A3021 RMK A01 T00611014  RH  058%=      5-min Rain = 0
KLE1 142122Z 21012KT 06/M02 A3021 RMK A01 T00601015  RH  059%=      5-min Rain = 0
KLE1 142123Z 21011KT 06/M02 A3021 RMK A01 T00581016  RH  059%=      5-min Rain = 0
KLE1 142124Z 21011KT 06/M01 A3021 RMK A01 T00581014  RH  060%=      5-min Rain = 0
KLE1 142125Z 21012G18KT 06/M01 A3021 RMK A01 T00601012  RH  060%=      5-min Rain = 0
KLE1 142126Z 21015KT 06/M01 A3021 RMK A01 T00641010  RH  059%=      5-min Rain = 0
KLE1 142127Z 21014G20KT 07/M01 A3021 RMK A01 T00651011  RH  058%=      5-min Rain = 0
KLE1 142128Z 19017KT 06/M01 A3021 RMK A01 T00631014  RH  058%=      5-min Rain = 0
KLE1 142129Z 19013KT 06/M01 A3021 RMK A01 T00611014  RH  059%=      5-min Rain = 0
KLE1 142130Z 20010KT 06/M01 A3021 RMK A01 T00601014  RH  059%=      5-min Rain = 0
KLE1 142131Z 22012KT 06/M01 A3021 RMK A01 T00621012  RH  059%=      5-min Rain = 0
KLE1 142132Z 22011KT 06/M01 A3021 RMK A01 T00631011  RH  059%=      5-min Rain = 0
KLE1 142133Z 22010KT 06/M01 A3021 RMK A01 T00641012  RH  058%=      5-min Rain = 0
KLE1 142134Z 22012G17KT 06/M01 A302 RMK A01 T00641011  RH  058%=      5-min Rain = 0
KLE1 142135Z 21016KT 07/M01 A302 RMK A01 T00661012  RH  058%=      5-min Rain = 0
KLE1 142136Z 20014KT 06/M01 A302 RMK A01 T00641013  RH  058%=      5-min Rain = 0
KLE1 142137Z 19015KT 06/M01 A302 RMK A01 T00641012  RH  058%=      5-min Rain = 0
KLE1 142138Z 19014KT 06/M01 A302 RMK A01 T00641013  RH  058%=      5-min Rain = 0
KLE1 142139Z 20010G15KT 06/M01 A302 RMK A01 T00621014  RH  058%=      5-min Rain = 0
KLE1 142140Z 21013KT 06/M01 A302 RMK A01 T00621014  RH  058%=      5-min Rain = 0
KLE1 142141Z 21013KT 06/M01 A302 RMK A01 T00621013  RH  058%=      5-min Rain = 0
KLE1 142142Z 21015KT 06/M01 A302 RMK A01 T00621014  RH  058%=      5-min Rain = 0
KLE1 142143Z 21013KT 06/M01 A302 RMK A01 T00621014  RH  058%=      5-min Rain = 0
KLE1 142144Z 20013KT 06/M02 A302 RMK A01 T00601015  RH  059%=      5-min Rain = 0
KLE1 142145Z 21011KT 06/M01 A302 RMK A01 T00611013  RH  059%=      5-min Rain = 0
KLE1 142146Z 20011KT 06/M01 A302 RMK A01 T00631012  RH  058%=      5-min Rain = 0
KLE1 142147Z 20013KT 07/M01 A302 RMK A01 T00651010  RH  058%=      5-min Rain = 0
KLE1 142148Z 19016KT 07/M01 A3019 RMK A01 T00681010  RH  058%=      5-min Rain = 0
KLE1 142149Z 19012KT 07/M01 A3019 RMK A01 T00671013  RH  057%=      5-min Rain = 0
KLE1 142150Z 19014KT 07/M01 A3019 RMK A01 T00661013  RH  057%=      5-min Rain = 0
KLE1 142151Z 20014KT 07/M01 A3019 RMK A01 T00651014  RH  057%=      5-min Rain = 0
KLE1 142152Z 20013KT 06/M02 A3019 RMK A01 T00611016  RH  058%=      5-min Rain = 0
KLE1 142153Z 21014KT 06/M01 A3019 RMK A01 T00621013  RH  059%=      5-min Rain = 0
KLE1 142154Z 21011KT 06/M01 A3019 RMK A01 T00641012  RH  058%=      5-min Rain = 0
KLE1 142155Z 22015KT 07/M01 A3019 RMK A01 T00671011  RH  058%=      5-min Rain = 0
KLE1 142156Z 22014KT 07/M01 A3019 RMK A01 T00661013  RH  057%=      5-min Rain = 0
KLE1 142157Z 22013KT 07/M01 A3019 RMK A01 T00651013  RH  058%=      5-min Rain = 0
KLE1 142158Z 20014KT 07/M01 A3019 RMK A01 T00661012  RH  058%=      5-min Rain = 0
KLE1 142159Z 19012KT 07/M01 A3019 RMK A01 T00661013  RH  057%=      5-min Rain = 0
KLE1 142200Z 20012KT 07/M01 A3019 RMK A01 T00651013  RH  057%=      5-min Rain = 0
KLE1 142201Z 21013KT 07/M01 A3019 RMK A01 T00651012  RH  058%=      5-min Rain = 0
KLE1 142202Z 21015KT 07/M01 A3019 RMK A01 T00661012  RH  057%=      5-min Rain = 0
KLE1 142203Z 20014KT 07/M01 A3019 RMK A01 T00651013  RH  057%=      5-min Rain = 0
KLE1 142204Z 21013KT 07/M01 A3019 RMK A01 T00651012  RH  058%=      5-min Rain = 0
KLE1 142205Z 21014KT 07/M01 A3018 RMK A01 T00651013  RH  057%=      5-min Rain = 0
KLE1 142206Z 21013KT 06/M01 A3018 RMK A01 T00641013  RH  058%=      5-min Rain = 0
KLE1 142207Z 21014KT 07/M01 A3019 RMK A01 T00651012  RH  058%=      5-min Rain = 0
KLE1 142208Z 20013KT 07/M01 A3019 RMK A01 T00661012  RH  058%=      5-min Rain = 0
KLE1 142209Z 20016KT 07/M01 A3018 RMK A01 T00661012  RH  058%=      5-min Rain = 0
KLE1 142210Z 19012KT 07/M01 A3018 RMK A01 T00651013  RH  057%=      5-min Rain = 0
KLE1 142211Z 20011KT 07/M01 A3018 RMK A01 T00651011  RH  058%=      5-min Rain = 0
KLE1 142212Z 20014KT 07/M01 A3018 RMK A01 T00671011  RH  058%=      5-min Rain = 0
KLE1 142213Z 20011KT 07/M01 A3018 RMK A01 T00651013  RH  057%=      5-min Rain = 0
KLE1 142214Z 20015KT 07/M01 A3018 RMK A01 T00661011  RH  058%=      5-min Rain = 0
KLE1 142215Z 20014KT 07/M01 A3018 RMK A01 T00671012  RH  057%=      5-min Rain = 0
KLE1 142216Z 20013KT 07/M01 A3018 RMK A01 T00661013  RH  057%=      5-min Rain = 0
KLE1 142217Z 21014KT 07/M01 A3018 RMK A01 T00651013  RH  057%=      5-min Rain = 0
KLE1 142218Z 20011KT 07/M01 A3018 RMK A01 T00651012  RH  058%=      5-min Rain = 0
KLE1 142219Z 20013KT 07/M01 A3018 RMK A01 T00661011  RH  058%=      5-min Rain = 0
KLE1 142220Z 20013KT 07/M01 A3018 RMK A01 T00661013  RH  057%=      5-min Rain = 0
KLE1 142221Z 19013KT 07/M01 A3018 RMK A01 T00661012  RH  057%=      5-min Rain = 0
KLE1 142222Z 20013KT 07/M01 A3018 RMK A01 T00651013  RH  057%=      5-min Rain = 0
KLE1 142223Z 21011KT 07/M01 A3018 RMK A01 T00651012  RH  058%=      5-min Rain = 0
KLE1 142224Z 20013KT 07/M01 A3018 RMK A01 T00661012  RH  058%=      5-min Rain = 0
KLE1 142225Z 19010KT 07/M01 A3018 RMK A01 T00671011  RH  057%=      5-min Rain = 0
KLE1 142226Z 18011KT 07/M01 A3018 RMK A01 T00661012  RH  057%=      5-min Rain = 0
KLE1 142227Z 19012KT 07/M01 A3018 RMK A01 T00661013  RH  057%=      5-min Rain = 0
KLE1 142228Z 19016KT 07/M01 A3018 RMK A01 T00661012  RH  057%=      5-min Rain = 0
KLE1 142229Z 19014KT 07/M01 A3018 RMK A01 T00671011  RH  057%=      5-min Rain = 0
KLE1 142230Z 19015KT 07/M01 A3018 RMK A01 T00671011  RH  057%=      5-min Rain = 0
KLE1 142231Z 19014KT 07/M01 A3018 RMK A01 T00661013  RH  057%=      5-min Rain = 0
KLE1 142232Z 19015KT 07/M01 A3018 RMK A01 T00651013  RH  057%=      5-min Rain = 0
KLE1 142233Z 20012KT 07/M01 A3018 RMK A01 T00651013  RH  058%=      5-min Rain = 0
KLE1 142234Z 20012KT 06/M01 A3018 RMK A01 T00641013  RH  058%=      5-min Rain = 0
KLE1 142235Z 19013KT 07/M01 A3018 RMK A01 T00651012  RH  058%=      5-min Rain = 0
KLE1 142236Z 20011KT 07/M01 A3018 RMK A01 T00651012  RH  058%=      5-min Rain = 0
KLE1 142237Z 22013KT 07/M01 A3018 RMK A01 T00671009  RH  058%=      5-min Rain = 0
KLE1 142238Z 22013KT 07/M01 A3018 RMK A01 T00681010  RH  057%=      5-min Rain = 0
KLE1 142239Z 20013KT 07/M01 A3018 RMK A01 T00681012  RH  057%=      5-min Rain = 0
KLE1 142240Z 20014KT 07/M01 A3018 RMK A01 T00651014  RH  057%=      5-min Rain = 0
KLE1 142241Z 21014KT 06/M01 A3018 RMK A01 T00641013  RH  058%=      5-min Rain = 0
KLE1 142242Z 21014KT 06/M01 A3018 RMK A01 T00641012  RH  058%=      5-min Rain = 0
KLE1 142243Z 21013KT 07/M01 A3018 RMK A01 T00651012  RH  058%=      5-min Rain = 0
KLE1 142244Z 21012KT 07/M01 A3018 RMK A01 T00651011  RH  058%=      5-min Rain = 0
KLE1 142245Z 21013KT 07/M01 A3018 RMK A01 T00661011  RH  058%=      5-min Rain = 0
KLE1 142246Z 20013KT 07/M01 A3018 RMK A01 T00671011  RH  058%=      5-min Rain = 0
KLE1 142247Z 19013KT 07/M01 A3018 RMK A01 T00671010  RH  058%=      5-min Rain = 0
KLE1 142248Z 19012KT 07/M01 A3017 RMK A01 T00671011  RH  057%=      5-min Rain = 0
KLE1 142249Z 18013KT 07/M01 A3017 RMK A01 T00661012  RH  058%=      5-min Rain = 0
KLE1 142250Z 21013KT 07/M01 A3017 RMK A01 T00661011  RH  058%=      5-min Rain = 0
KLE1 142251Z 21011KT 07/M01 A3017 RMK A01 T00651012  RH  058%=      5-min Rain = 0
KLE1 142252Z 21012KT 07/M01 A3017 RMK A01 T00651012  RH  058%=      5-min Rain = 0
KLE1 142253Z 20012KT 07/M01 A3017 RMK A01 T00661010  RH  058%=      5-min Rain = 0
KLE1 142254Z 20013KT 07/M01 A3017 RMK A01 T00671010  RH  058%=      5-min Rain = 0
KLE1 142255Z 20013KT 07/M01 A3017 RMK A01 T00661011  RH  058%=      5-min Rain = 0
KLE1 142256Z 19013KT 07/M01 A3017 RMK A01 T00661010  RH  058%=      5-min Rain = 0
KLE1 142257Z 19012KT 07/M01 A3017 RMK A01 T00661011  RH  058%=      5-min Rain = 0
KLE1 142258Z 19012KT 07/M01 A3017 RMK A01 T00661012  RH  058%=      5-min Rain = 0
KLE1 142259Z 20012KT 07/M01 A3017 RMK A01 T00651012  RH  058%=      5-min Rain = 0
KLE1 142300Z 20014KT 07/M01 A3017 RMK A01 T00651010  RH  059%=      5-min Rain = 0
KLE1 142301Z 19014KT 07/M01 A3017 RMK A01 T00651010  RH  058%=      5-min Rain = 0
KLE1 142302Z 20013KT 07/M01 A3017 RMK A01 T00651011  RH  058%=      5-min Rain = 0
KLE1 142303Z 20011KT 06/M01 A3017 RMK A01 T00641011  RH  059%=      5-min Rain = 0
KLE1 142304Z 20013KT 07/M01 A3017 RMK A01 T00651010  RH  059%=      5-min Rain = 0
KLE1 142305Z 20014KT 07/M01 A3017 RMK A01 T00651011  RH  058%=      5-min Rain = 0
KLE1 142306Z 20015KT 06/M01 A3017 RMK A01 T00631012  RH  058%=      5-min Rain = 0
KLE1 142307Z 20013KT 06/M01 A3017 RMK A01 T00621012  RH  059%=      5-min Rain = 0
KLE1 142308Z 20012KT 06/M01 A3017 RMK A01 T00621011  RH  060%=      5-min Rain = 0
KLE1 142309Z 19010KT 06/M01 A3017 RMK A01 T00621011  RH  059%=      5-min Rain = 0
KLE1 142310Z 20011KT 06/M01 A3017 RMK A01 T00631011  RH  059%=      5-min Rain = 0
KLE1 142311Z 20014KT 06/M01 A3017 RMK A01 T00621011  RH  059%=      5-min Rain = 0
KLE1 142312Z 20014KT 06/M01 A3017 RMK A01 T00621011  RH  060%=      5-min Rain = 0
KLE1 142313Z 19012KT 06/M01 A3017 RMK A01 T00611011  RH  060%=      5-min Rain = 0
KLE1 142314Z 20011KT 06/M01 A3017 RMK A01 T00611010  RH  060%=      5-min Rain = 0
KLE1 142315Z 20012KT 06/M01 A3017 RMK A01 T00611011  RH  060%=      5-min Rain = 0
KLE1 142316Z 20011KT 06/M01 A3017 RMK A01 T00611012  RH  060%=      5-min Rain = 0
KLE1 142317Z 21011KT 06/M01 A3017 RMK A01 T00611011  RH  060%=      5-min Rain = 0
KLE1 142318Z 21011KT 06/M01 A3017 RMK A01 T00611011  RH  060%=      5-min Rain = 0
KLE1 142319Z 20013KT 06/M01 A3017 RMK A01 T00611011  RH  060%=      5-min Rain = 0
KLE1 142320Z 21012KT 06/M01 A3017 RMK A01 T00611011  RH  060%=      5-min Rain = 0
KLE1 142321Z 22014KT 06/M01 A3017 RMK A01 T00611011  RH  060%=      5-min Rain = 0
KLE1 142322Z 22016KT 06/M01 A3017 RMK A01 T00591012  RH  060%=      5-min Rain = 0
KLE1 142323Z 21015KT 06/M01 A3018 RMK A01 T00581012  RH  061%=      5-min Rain = 0
KLE1 142324Z 20014KT 06/M01 A3018 RMK A01 T00571012  RH  061%=      5-min Rain = 0
KLE1 142325Z 20015KT 06/M01 A3017 RMK A01 T00571012  RH  061%=      5-min Rain = 0
KLE1 142326Z 19014KT 06/M01 A3017 RMK A01 T00571012  RH  061%=      5-min Rain = 0
KLE1 142327Z 20015KT 06/M01 A3017 RMK A01 T00561013  RH  061%=      5-min Rain = 0
KLE1 142328Z 21013KT 06/M01 A3017 RMK A01 T00561013  RH  061%=      5-min Rain = 0
KLE1 142329Z 21014KT 06/M01 A3017 RMK A01 T00561012  RH  062%=      5-min Rain = 0
KLE1 142330Z 21014KT 06/M01 A3018 RMK A01 T00561012  RH  061%=      5-min Rain = 0
KLE1 142331Z 21013KT 06/M01 A3017 RMK A01 T00551013  RH  062%=      5-min Rain = 0
KLE1 142332Z 21011KT 06/M01 A3018 RMK A01 T00551013  RH  062%=      5-min Rain = 0
KLE1 142333Z 22014KT 06/M01 A3017 RMK A01 T00551012  RH  062%=      5-min Rain = 0
KLE1 142334Z 22012KT 05/M01 A3018 RMK A01 T00541013  RH  062%=      5-min Rain = 0
KLE1 142335Z 21010KT 05/M01 A3018 RMK A01 T00541012  RH  062%=      5-min Rain = 0
KLE1 142336Z 21014KT 05/M01 A3018 RMK A01 T00541012  RH  063%=      5-min Rain = 0
KLE1 142337Z 21012KT 05/M01 A3018 RMK A01 T00541012  RH  063%=      5-min Rain = 0
KLE1 142338Z 21013KT 05/M01 A3018 RMK A01 T00541011  RH  063%=      5-min Rain = 0
KLE1 142339Z 21013KT 05/M01 A3017 RMK A01 T00531012  RH  063%=      5-min Rain = 0
KLE1 142340Z 22013KT 05/M01 A3017 RMK A01 T00521013  RH  063%=      5-min Rain = 0
KLE1 142341Z 21014KT 05/M01 A3017 RMK A01 T00511013  RH  063%=      5-min Rain = 0
KLE1 142342Z 22013KT 05/M01 A3017 RMK A01 T00511013  RH  063%=      5-min Rain = 0
KLE1 142343Z 22014KT 05/M01 A3017 RMK A01 T00501013  RH  064%=      5-min Rain = 0
KLE1 142344Z 21015KT 05/M01 A3017 RMK A01 T00491013  RH  064%=      5-min Rain = 0
KLE1 142345Z 20014KT 05/M01 A3017 RMK A01 T00491013  RH  064%=      5-min Rain = 0
KLE1 142346Z 21013KT 05/M01 A3017 RMK A01 T00491012  RH  065%=      5-min Rain = 0
KLE1 142347Z 21015KT 05/M01 A3017 RMK A01 T00491012  RH  065%=      5-min Rain = 0
KLE1 142348Z 21015KT 05/M01 A3017 RMK A01 T00491013  RH  064%=      5-min Rain = 0
KLE1 142349Z 20013KT 05/M01 A3017 RMK A01 T00491013  RH  064%=      5-min Rain = 0
KLE1 142350Z 20013KT 05/M01 A3017 RMK A01 T00481013  RH  064%=      5-min Rain = 0
KLE1 142351Z 20013KT 05/M01 A3017 RMK A01 T00471014  RH  065%=      5-min Rain = 0
KLE1 142352Z 21012KT 05/M01 A3017 RMK A01 T00461014  RH  065%=      5-min Rain = 0
KLE1 142353Z 21012KT 05/M01 A3017 RMK A01 T00461013  RH  066%=      5-min Rain = 0
KLE1 142354Z 21011KT 05/M01 A3017 RMK A01 T00451014  RH  066%=      5-min Rain = 0
KLE1 142355Z 20013KT 04/M01 A3017 RMK A01 T00431014  RH  066%=      5-min Rain = 0
KLE1 142356Z 20012KT 04/M01 A3017 RMK A01 T00431014  RH  067%=      5-min Rain = 0
KLE1 142357Z 21012KT 04/M01 A3017 RMK A01 T00431014  RH  067%=      5-min Rain = 0
KLE1 142358Z 20015KT 04/M01 A3017 RMK A01 T00421014  RH  067%=      5-min Rain = 0
KLE1 142359Z 21015KT 04/M01 A3017 RMK A01 T00411014  RH  067%=      5-min Rain = 0
KLE1 150000Z 21013KT 04/M01 A3017 RMK A01 T00421014  RH  067%=      5-min Rain = 0
KLE1 150001Z 21012KT 04/M01 A3017 RMK A01 T00411014  RH  067%=      5-min Rain = 0
KLE1 150002Z 21012KT 04/M02 A3017 RMK A01 T00401015  RH  068%=      5-min Rain = 0
KLE1 150003Z 21011KT 04/M02 A3017 RMK A01 T00391015  RH  068%=      5-min Rain = 0
KLE1 150004Z 21010KT 04/M02 A3017 RMK A01 T00381015  RH  068%=      5-min Rain = 0
KLE1 150005Z 21010KT 04/M02 A3017 RMK A01 T00371015  RH  069%=      5-min Rain = 0
KLE1 150006Z 22010KT 04/M02 A3017 RMK A01 T00371015  RH  069%=      5-min Rain = 0
KLE1 150007Z 21011KT 04/M02 A3017 RMK A01 T00361015  RH  069%=      5-min Rain = 0
KLE1 150008Z 21010KT 04/M02 A3017 RMK A01 T00361015  RH  069%=      5-min Rain = 0
KLE1 150009Z 21010KT 04/M02 A3017 RMK A01 T00351015  RH  070%=      5-min Rain = 0
KLE1 150010Z 21011KT 04/M02 A3017 RMK A01 T00351015  RH  070%=      5-min Rain = 0
KLE1 150011Z 21010KT 03/M02 A3017 RMK A01 T00341015  RH  070%=      5-min Rain = 0
KLE1 150012Z 22010KT 03/M02 A3017 RMK A01 T00341015  RH  071%=      5-min Rain = 0
KLE1 150013Z 21010KT 03/M02 A3018 RMK A01 T00331015  RH  071%=      5-min Rain = 0
KLE1 150014Z 21010KT 03/M02 A3018 RMK A01 T00331015  RH  071%=      5-min Rain = 0
KLE1 150015Z 21009KT 03/M02 A3018 RMK A01 T00331015  RH  071%=      5-min Rain = 0
KLE1 150016Z 21008KT 03/M02 A3018 RMK A01 T00321015  RH  071%=      5-min Rain = 0
KLE1 150017Z 21008KT 03/M02 A3018 RMK A01 T00311016  RH  071%=      5-min Rain = 0
KLE1 150018Z 21008KT 03/M02 A3017 RMK A01 T00301016  RH  072%=      5-min Rain = 0
KLE1 150019Z 21008KT 03/M02 A3017 RMK A01 T00301016  RH  072%=      5-min Rain = 0
KLE1 150020Z 21008KT 03/M02 A3017 RMK A01 T00291016  RH  072%=      5-min Rain = 0
KLE1 150021Z 21008KT 03/M02 A3017 RMK A01 T00291016  RH  072%=      5-min Rain = 0
KLE1 150022Z 21008KT 03/M02 A3017 RMK A01 T00281016  RH  073%=      5-min Rain = 0
KLE1 150023Z 22007KT 03/M02 A3018 RMK A01 T00281016  RH  073%=      5-min Rain = 0
KLE1 150024Z 22007KT 03/M02 A3017 RMK A01 T00271017  RH  073%=      5-min Rain = 0
KLE1 150025Z 21007KT 03/M02 A3017 RMK A01 T00271017  RH  073%=      5-min Rain = 0
KLE1 150026Z 21007KT 03/M02 A3017 RMK A01 T00261017  RH  073%=      5-min Rain = 0
KLE1 150027Z 21007KT 03/M02 A3017 RMK A01 T00251017  RH  074%=      5-min Rain = 0
KLE1 150028Z 21006KT 02/M02 A3017 RMK A01 T00241018  RH  074%=      5-min Rain = 0
KLE1 150029Z 21006KT 02/M02 A3017 RMK A01 T00241018  RH  074%=      5-min Rain = 0
KLE1 150030Z 22007KT 02/M02 A3017 RMK A01 T00231019  RH  074%=      5-min Rain = 0
KLE1 150031Z 21007KT 02/M02 A3017 RMK A01 T00221018  RH  075%=      5-min Rain = 0
KLE1 150032Z 22007KT 02/M02 A3017 RMK A01 T00221018  RH  075%=      5-min Rain = 0
KLE1 150033Z 21007KT 02/M02 A3017 RMK A01 T00211017  RH  075%=      5-min Rain = 0
KLE1 150034Z 21007KT 02/M02 A3017 RMK A01 T00221017  RH  075%=      5-min Rain = 0
KLE1 150035Z 21007KT 02/M02 A3017 RMK A01 T00211018  RH  075%=      5-min Rain = 0
KLE1 150036Z 21006KT 02/M02 A3017 RMK A01 T00211018  RH  075%=      5-min Rain = 0
KLE1 150037Z 21006KT 02/M02 A3017 RMK A01 T00201018  RH  076%=      5-min Rain = 0
KLE1 150038Z 21007KT 02/M02 A3017 RMK A01 T00201018  RH  076%=      5-min Rain = 0
KLE1 150039Z 21006KT 02/M02 A3017 RMK A01 T00201018  RH  076%=      5-min Rain = 0
KLE1 150040Z 21006KT 02/M02 A3017 RMK A01 T00201018  RH  076%=      5-min Rain = 0
KLE1 150041Z 21007KT 02/M02 A3017 RMK A01 T00191018  RH  076%=      5-min Rain = 0
KLE1 150042Z 21006KT 02/M02 A3017 RMK A01 T00191018  RH  076%=      5-min Rain = 0
KLE1 150043Z 21007KT 02/M02 A3017 RMK A01 T00191018  RH  076%=      5-min Rain = 0
KLE1 150044Z 21007KT 02/M02 A3017 RMK A01 T00191019  RH  076%=      5-min Rain = 0
KLE1 150045Z 21007KT 02/M02 A3017 RMK A01 T00181019  RH  076%=      5-min Rain = 0
KLE1 150046Z 21008KT 02/M02 A3017 RMK A01 T00181019  RH  076%=      5-min Rain = 0
KLE1 150047Z 21007KT 02/M02 A3017 RMK A01 T00181019  RH  077%=      5-min Rain = 0
KLE1 150048Z 21007KT 02/M02 A3017 RMK A01 T00171019  RH  077%=      5-min Rain = 0
KLE1 150049Z 21007KT 02/M02 A3017 RMK A01 T00171019  RH  077%=      5-min Rain = 0
KLE1 150050Z 21008KT 02/M02 A3017 RMK A01 T00171018  RH  077%=      5-min Rain = 0
KLE1 150051Z 20008KT 02/M02 A3017 RMK A01 T00161019  RH  078%=      5-min Rain = 0
KLE1 150052Z 20008KT 02/M02 A3017 RMK A01 T00161019  RH  078%=      5-min Rain = 0
KLE1 150053Z 20008KT 02/M02 A3017 RMK A01 T00161019  RH  078%=      5-min Rain = 0
KLE1 150054Z 20008KT 02/M02 A3017 RMK A01 T00161019  RH  078%=      5-min Rain = 0
KLE1 150055Z 20008KT 02/M02 A3017 RMK A01 T00151019  RH  078%=      5-min Rain = 0
KLE1 150056Z 20008KT 02/M02 A3017 RMK A01 T00151019  RH  078%=      5-min Rain = 0
KLE1 150057Z 20008KT 02/M02 A3017 RMK A01 T00151019  RH  078%=      5-min Rain = 0
KLE1 150058Z 20008KT 02/M02 A3017 RMK A01 T00151018  RH  078%=      5-min Rain = 0
KLE1 150059Z 20008KT 02/M02 A3017 RMK A01 T00151019  RH  078%=      5-min Rain = 0
KLE1 150100Z 20007KT 02/M02 A3017 RMK A01 T00151019  RH  078%=      5-min Rain = 0
KLE1 150101Z 21007KT 02/M02 A3017 RMK A01 T00151019  RH  078%=      5-min Rain = 0
KLE1 150102Z 21007KT 02/M02 A3017 RMK A01 T00151019  RH  078%=      5-min Rain = 0
KLE1 150103Z 21007KT 02/M02 A3017 RMK A01 T00151019  RH  078%=      5-min Rain = 0
KLE1 150104Z 21007KT 02/M02 A3017 RMK A01 T00151019  RH  078%=      5-min Rain = 0
KLE1 150105Z 20006KT 01/M02 A3017 RMK A01 T00141019  RH  078%=      5-min Rain = 0
KLE1 150106Z 20006KT 01/M02 A3017 RMK A01 T00141020  RH  078%=      5-min Rain = 0
KLE1 150107Z 20006KT 01/M02 A3017 RMK A01 T00141019  RH  079%=      5-min Rain = 0
KLE1 150108Z 20005KT 01/M02 A3017 RMK A01 T00141019  RH  079%=      5-min Rain = 0
KLE1 150109Z 21005KT 01/M02 A3017 RMK A01 T00141019  RH  079%=      5-min Rain = 0
KLE1 150110Z 21005KT 01/M02 A3017 RMK A01 T00141019  RH  079%=      5-min Rain = 0
KLE1 150111Z 20005KT 01/M02 A3017 RMK A01 T00141019  RH  079%=      5-min Rain = 0
KLE1 150112Z 20005KT 02/M02 A3017 RMK A01 T00151018  RH  079%=      5-min Rain = 0
KLE1 150113Z 21005KT 02/M02 A3017 RMK A01 T00151018  RH  079%=      5-min Rain = 0
KLE1 150114Z 20005KT 02/M02 A3017 RMK A01 T00151019  RH  079%=      5-min Rain = 0
KLE1 150115Z 20005KT 02/M02 A3018 RMK A01 T00151018  RH  079%=      5-min Rain = 0
KLE1 150116Z 21005KT 02/M02 A3018 RMK A01 T00151018  RH  079%=      5-min Rain = 0
KLE1 150117Z 21005KT 02/M02 A3018 RMK A01 T00151018  RH  079%=      5-min Rain = 0
KLE1 150118Z 21005KT 02/M02 A3018 RMK A01 T00151018  RH  079%=      5-min Rain = 0
KLE1 150119Z 21005KT 01/M02 A3018 RMK A01 T00141019  RH  079%=      5-min Rain = 0
KLE1 150120Z 21005KT 01/M02 A3018 RMK A01 T00141019  RH  079%=      5-min Rain = 0
KLE1 150121Z 21005KT 01/M02 A3018 RMK A01 T00131020  RH  079%=      5-min Rain = 0
KLE1 150122Z 21005KT 01/M02 A3018 RMK A01 T00121020  RH  079%=      5-min Rain = 0
KLE1 150123Z 21006KT 01/M02 A3018 RMK A01 T00111020  RH  079%=      5-min Rain = 0
KLE1 150124Z 21006KT 01/M02 A3018 RMK A01 T00111020  RH  080%=      5-min Rain = 0
KLE1 150125Z 22006KT 01/M02 A3018 RMK A01 T00111020  RH  080%=      5-min Rain = 0
KLE1 150126Z 22006KT 01/M02 A3018 RMK A01 T00111020  RH  080%=      5-min Rain = 0
KLE1 150127Z 22006KT 01/M02 A3018 RMK A01 T00121019  RH  080%=      5-min Rain = 0
KLE1 150128Z 22006KT 01/M02 A3018 RMK A01 T00121019  RH  080%=      5-min Rain = 0
KLE1 150129Z 23004KT 01/M02 A3018 RMK A01 T00121019  RH  079%=      5-min Rain = 0
KLE1 150130Z 23004KT 01/M02 A3018 RMK A01 T00111021  RH  079%=      5-min Rain = 0
KLE1 150131Z 23004KT 01/M02 A3018 RMK A01 T00111020  RH  080%=      5-min Rain = 0
KLE1 150132Z 23004KT 01/M02 A3018 RMK A01 T00101020  RH  080%=      5-min Rain = 0
KLE1 150133Z 23004KT 01/M02 A3018 RMK A01 T00111018  RH  081%=      5-min Rain = 0
KLE1 150134Z 23004KT 01/M02 A3018 RMK A01 T00121018  RH  081%=      5-min Rain = 0
KLE1 150135Z 23004KT 01/M02 A3018 RMK A01 T00131017  RH  080%=      5-min Rain = 0
KLE1 150136Z 23004KT 01/M02 A3017 RMK A01 T00141017  RH  080%=      5-min Rain = 0
KLE1 150137Z 22005KT 01/M02 A3017 RMK A01 T00141017  RH  080%=      5-min Rain = 0
KLE1 150138Z 22005KT 01/M02 A3017 RMK A01 T00141017  RH  079%=      5-min Rain = 0
KLE1 150139Z 22004KT 02/M02 A3017 RMK A01 T00151017  RH  079%=      5-min Rain = 0
KLE1 150140Z 22005KT 02/M02 A3017 RMK A01 T00151017  RH  079%=      5-min Rain = 0
KLE1 150141Z 22005KT 01/M02 A3017 RMK A01 T00141018  RH  079%=      5-min Rain = 0
KLE1 150142Z 22005KT 01/M02 A3017 RMK A01 T00141017  RH  079%=      5-min Rain = 0
KLE1 150143Z 22006KT 01/M02 A3017 RMK A01 T00141018  RH  079%=      5-min Rain = 0
KLE1 150144Z 22006KT 01/M02 A3017 RMK A01 T00131019  RH  079%=      5-min Rain = 0
KLE1 150145Z 22006KT 01/M02 A3017 RMK A01 T00131019  RH  080%=      5-min Rain = 0
KLE1 150146Z 22006KT 01/M02 A3017 RMK A01 T00121019  RH  080%=      5-min Rain = 0
KLE1 150147Z 22006KT 01/M02 A3017 RMK A01 T00111019  RH  080%=      5-min Rain = 0
KLE1 150148Z 22006KT 01/M02 A3017 RMK A01 T00111019  RH  081%=      5-min Rain = 0
KLE1 150149Z 22006KT 01/M02 A3017 RMK A01 T00111019  RH  081%=      5-min Rain = 0
KLE1 150150Z 23006KT 01/M02 A3017 RMK A01 T00111018  RH  081%=      5-min Rain = 0
KLE1 150151Z 22006KT 01/M02 A3017 RMK A01 T00111018  RH  081%=      5-min Rain = 0
KLE1 150152Z 23006KT 01/M02 A3017 RMK A01 T00111018  RH  081%=      5-min Rain = 0
KLE1 150153Z 23006KT 01/M02 A3017 RMK A01 T00111018  RH  081%=      5-min Rain = 0
KLE1 150154Z 23006KT 01/M02 A3017 RMK A01 T00111017  RH  081%=      5-min Rain = 0
KLE1 150155Z 23006KT 01/M02 A3017 RMK A01 T00111017  RH  081%=      5-min Rain = 0
KLE1 150156Z 23006KT 01/M02 A3017 RMK A01 T00111018  RH  081%=      5-min Rain = 0
KLE1 150157Z 23006KT 01/M02 A3017 RMK A01 T00111017  RH  081%=      5-min Rain = 0
KLE1 150158Z 23007KT 01/M02 A3017 RMK A01 T00111018  RH  081%=      5-min Rain = 0
KLE1 150159Z 23007KT 01/M02 A3017 RMK A01 T00111017  RH  081%=      5-min Rain = 0
KLE1 150200Z 23007KT 01/M02 A3017 RMK A01 T00111017  RH  081%=      5-min Rain = 0
KLE1 150201Z 23007KT 01/M02 A3017 RMK A01 T00111018  RH  081%=      5-min Rain = 0
KLE1 150202Z 23007KT 01/M02 A3017 RMK A01 T00101018  RH  081%=      5-min Rain = 0
KLE1 150203Z 23007KT 01/M02 A3017 RMK A01 T00101018  RH  082%=      5-min Rain = 0
KLE1 150204Z 23007KT 01/M02 A3017 RMK A01 T00091019  RH  082%=      5-min Rain = 0
KLE1 150205Z 23007KT 01/M02 A3017 RMK A01 T00081019  RH  082%=      5-min Rain = 0
KLE1 150206Z 24006KT 01/M02 A3017 RMK A01 T00071020  RH  082%=      5-min Rain = 0
KLE1 150207Z 24006KT 01/M02 A3017 RMK A01 T00061020  RH  083%=      5-min Rain = 0
KLE1 150208Z 24006KT 01/M02 A3017 RMK A01 T00061020  RH  083%=      5-min Rain = 0
KLE1 150209Z 24006KT 01/M02 A3017 RMK A01 T00051020  RH  083%=      5-min Rain = 0
KLE1 150210Z 24006KT 01/M02 A3017 RMK A01 T00061019  RH  084%=      5-min Rain = 0
KLE1 150211Z 24006KT 01/M02 A3017 RMK A01 T00051019  RH  084%=      5-min Rain = 0
KLE1 150212Z 24006KT 01/M02 A3017 RMK A01 T00051019  RH  084%=      5-min Rain = 0
KLE1 150213Z 24006KT 01/M02 A3017 RMK A01 T00061018  RH  084%=      5-min Rain = 0
KLE1 150214Z 25006KT 01/M02 A3017 RMK A01 T00061018  RH  084%=      5-min Rain = 0
KLE1 150215Z 25007KT 01/M02 A3017 RMK A01 T00061019  RH  083%=      5-min Rain = 0
KLE1 150216Z 25007KT 01/M02 A3017 RMK A01 T00061019  RH  083%=      5-min Rain = 0
KLE1 150217Z 25007KT 01/M02 A3017 RMK A01 T00061019  RH  083%=      5-min Rain = 0
KLE1 150218Z 25007KT 01/M02 A3017 RMK A01 T00061019  RH  083%=      5-min Rain = 0
KLE1 150219Z 25007KT 01/M02 A3017 RMK A01 T00051020  RH  083%=      5-min Rain = 0
KLE1 150220Z 25007KT 01/M02 A3017 RMK A01 T00051019  RH  084%=      5-min Rain = 0
KLE1 150221Z 25007KT 01/M02 A3017 RMK A01 T00051019  RH  084%=      5-min Rain = 0
KLE1 150222Z 25008KT 01/M02 A3017 RMK A01 T00051019  RH  084%=      5-min Rain = 0
KLE1 150223Z 25008KT 01/M02 A3017 RMK A01 T00051019  RH  084%=      5-min Rain = 0
KLE1 150224Z 25008KT 01/M02 A3017 RMK A01 T00051019  RH  084%=      5-min Rain = 0
KLE1 150225Z 25008KT 01/M02 A3017 RMK A01 T00051018  RH  084%=      5-min Rain = 0
KLE1 150226Z 25008KT 01/M02 A3017 RMK A01 T00051018  RH  084%=      5-min Rain = 0
KLE1 150227Z 24007KT 01/M02 A3017 RMK A01 T00061018  RH  084%=      5-min Rain = 0
KLE1 150228Z 24007KT 01/M02 A3017 RMK A01 T00051017  RH  085%=      5-min Rain = 0
KLE1 150229Z 24007KT 01/M02 A3017 RMK A01 T00051017  RH  085%=      5-min Rain = 0
KLE1 150230Z 24007KT 01/M02 A3017 RMK A01 T00051017  RH  085%=      5-min Rain = 0
KLE1 150231Z 24007KT 01/M02 A3017 RMK A01 T00051016  RH  085%=      5-min Rain = 0
KLE1 150232Z 23007KT 01/M02 A3017 RMK A01 T00061016  RH  085%=      5-min Rain = 0
KLE1 150233Z 23007KT 01/M02 A3017 RMK A01 T00071016  RH  085%=      5-min Rain = 0
KLE1 150234Z 23007KT 01/M02 A3017 RMK A01 T00071016  RH  085%=      5-min Rain = 0
KLE1 150235Z 23007KT 01/M02 A3017 RMK A01 T00071016  RH  085%=      5-min Rain = 0
KLE1 150236Z 23008KT 01/M02 A3017 RMK A01 T00081015  RH  085%=      5-min Rain = 0
KLE1 150237Z 23007KT 01/M02 A3017 RMK A01 T00081015  RH  085%=      5-min Rain = 0
KLE1 150238Z 22007KT 01/M02 A3017 RMK A01 T00081015  RH  084%=      5-min Rain = 0
KLE1 150239Z 22007KT 01/M02 A3017 RMK A01 T00091015  RH  084%=      5-min Rain = 0
KLE1 150240Z 22007KT 01/M02 A3017 RMK A01 T00081015  RH  084%=      5-min Rain = 0
KLE1 150241Z 22008KT 01/M02 A3017 RMK A01 T00081015  RH  085%=      5-min Rain = 0
KLE1 150242Z 22007KT 01/M01 A3017 RMK A01 T00091014  RH  085%=      5-min Rain = 0
KLE1 150243Z 22007KT 01/M01 A3017 RMK A01 T00091014  RH  085%=      5-min Rain = 0
KLE1 150244Z 22008KT 01/M01 A3017 RMK A01 T00091014  RH  085%=      5-min Rain = 0
KLE1 150245Z 22007KT 01/M01 A3017 RMK A01 T00091014  RH  085%=      5-min Rain = 0
KLE1 150246Z 21008KT 01/M01 A3017 RMK A01 T00091014  RH  085%=      5-min Rain = 0
KLE1 150247Z 21008KT 01/M01 A3017 RMK A01 T00091013  RH  085%=      5-min Rain = 0
KLE1 150248Z 21008KT 01/M01 A3017 RMK A01 T00091014  RH  085%=      5-min Rain = 0
KLE1 150249Z 22009KT 01/M01 A3017 RMK A01 T00091014  RH  085%=      5-min Rain = 0
KLE1 150250Z 22008KT 01/M01 A3017 RMK A01 T00091014  RH  085%=      5-min Rain = 0
KLE1 150251Z 21009KT 01/M01 A3017 RMK A01 T00091013  RH  085%=      5-min Rain = 0
KLE1 150252Z 22009KT 01/M01 A3017 RMK A01 T00091014  RH  085%=      5-min Rain = 0
KLE1 150253Z 21009KT 01/M01 A3016 RMK A01 T00081014  RH  085%=      5-min Rain = 0
KLE1 150254Z 22009KT 01/M01 A3016 RMK A01 T00081014  RH  085%=      5-min Rain = 0
KLE1 150255Z 22009KT 01/M01 A3016 RMK A01 T00081014  RH  085%=      5-min Rain = 0
KLE1 150256Z 21009KT 01/M01 A3016 RMK A01 T00081014  RH  085%=      5-min Rain = 0
KLE1 150257Z 22009KT 01/M01 A3016 RMK A01 T00081014  RH  085%=      5-min Rain = 0
KLE1 150258Z 22009KT 01/M01 A3016 RMK A01 T00081014  RH  085%=      5-min Rain = 0
KLE1 150259Z 22009KT 01/M01 A3016 RMK A01 T00081014  RH  085%=      5-min Rain = 0
KLE1 150300Z 22008KT 01/M01 A3016 RMK A01 T00081014  RH  085%=      5-min Rain = 0
KLE1 150301Z 22008KT 01/M01 A3016 RMK A01 T00081014  RH  085%=      5-min Rain = 0
KLE1 150302Z 22008KT 01/M01 A3016 RMK A01 T00091013  RH  085%=      5-min Rain = 0
KLE1 150303Z 22008KT 01/M01 A3016 RMK A01 T00091013  RH  085%=      5-min Rain = 0
KLE1 150304Z 22008KT 01/M01 A3016 RMK A01 T00091013  RH  085%=      5-min Rain = 0
KLE1 150305Z 23008KT 01/M01 A3016 RMK A01 T00081014  RH  085%=      5-min Rain = 0
KLE1 150306Z 22008KT 01/M01 A3016 RMK A01 T00081013  RH  086%=      5-min Rain = 0
KLE1 150307Z 22008KT 01/M01 A3016 RMK A01 T00091013  RH  086%=      5-min Rain = 0
KLE1 150308Z 22007KT 01/M01 A3016 RMK A01 T00091012  RH  086%=      5-min Rain = 0
KLE1 150309Z 22007KT 01/M01 A3016 RMK A01 T00091013  RH  085%=      5-min Rain = 0
KLE1 150310Z 22007KT 01/M01 A3016 RMK A01 T00091013  RH  085%=      5-min Rain = 0
KLE1 150311Z 22006KT 01/M01 A3016 RMK A01 T00091013  RH  085%=      5-min Rain = 0
KLE1 150312Z 23006KT 01/M01 A3016 RMK A01 T00091013  RH  085%=      5-min Rain = 0
KLE1 150313Z 23006KT 01/M01 A3016 RMK A01 T00081014  RH  085%=      5-min Rain = 0
KLE1 150314Z 23005KT 01/M01 A3016 RMK A01 T00081014  RH  085%=      5-min Rain = 0
KLE1 150315Z 23005KT 01/M01 A3016 RMK A01 T00071014  RH  086%=      5-min Rain = 0
KLE1 150316Z 23005KT 01/M01 A3016 RMK A01 T00071014  RH  086%=      5-min Rain = 0
KLE1 150317Z 23005KT 01/M01 A3016 RMK A01 T00071014  RH  086%=      5-min Rain = 0
KLE1 150318Z 23005KT 01/M01 A3016 RMK A01 T00071014  RH  086%=      5-min Rain = 0
KLE1 150319Z 23005KT 01/M01 A3016 RMK A01 T00071014  RH  086%=      5-min Rain = 0
KLE1 150320Z 23005KT 01/M01 A3016 RMK A01 T00071014  RH  086%=      5-min Rain = 0
KLE1 150321Z 23005KT 01/M01 A3016 RMK A01 T00071014  RH  086%=      5-min Rain = 0
KLE1 150322Z 23005KT 01/M01 A3016 RMK A01 T00071014  RH  086%=      5-min Rain = 0
KLE1 150323Z 23005KT 01/M01 A3016 RMK A01 T00081014  RH  086%=      5-min Rain = 0
KLE1 150324Z 23005KT 01/M01 A3016 RMK A01 T00081013  RH  086%=      5-min Rain = 0
KLE1 150325Z 23005KT 01/M01 A3016 RMK A01 T00081013  RH  086%=      5-min Rain = 0
KLE1 150326Z 23005KT 01/M01 A3016 RMK A01 T00081013  RH  085%=      5-min Rain = 0
KLE1 150327Z 23005KT 01/M01 A3016 RMK A01 T00091013  RH  085%=      5-min Rain = 0
KLE1 150328Z 23005KT 01/M01 A3016 RMK A01 T00081014  RH  085%=      5-min Rain = 0
KLE1 150329Z 23005KT 01/M01 A3016 RMK A01 T00081014  RH  085%=      5-min Rain = 0
KLE1 150330Z 22005KT 01/M02 A3016 RMK A01 T00071015  RH  085%=      5-min Rain = 0
KLE1 150331Z 22005KT 01/M02 A3016 RMK A01 T00061015  RH  086%=      5-min Rain = 0
KLE1 150332Z 22004KT 01/M02 A3016 RMK A01 T00061015  RH  086%=      5-min Rain = 0
KLE1 150333Z 22005KT 01/M01 A3016 RMK A01 T00061014  RH  086%=      5-min Rain = 0
KLE1 150334Z 22005KT 01/M01 A3016 RMK A01 T00061014  RH  086%=      5-min Rain = 0
KLE1 150335Z 23005KT 01/M01 A3016 RMK A01 T00061014  RH  086%=      5-min Rain = 0
KLE1 150336Z 22005KT 01/M01 A3016 RMK A01 T00061014  RH  086%=      5-min Rain = 0
KLE1 150337Z 22005KT 01/M02 A3015 RMK A01 T00061015  RH  086%=      5-min Rain = 0
KLE1 150338Z 21005KT 01/M02 A3015 RMK A01 T00061015  RH  086%=      5-min Rain = 0
KLE1 150339Z 22004KT 01/M02 A3015 RMK A01 T00061015  RH  086%=      5-min Rain = 0
KLE1 150340Z 21005KT 01/M02 A3015 RMK A01 T00051015  RH  086%=      5-min Rain = 0
KLE1 150341Z 22005KT 01/M02 A3015 RMK A01 T00051015  RH  087%=      5-min Rain = 0
KLE1 150342Z 24004KT 01/M02 A3015 RMK A01 T00051015  RH  087%=      5-min Rain = 0
KLE1 150343Z 23004KT 01/M01 A3015 RMK A01 T00051014  RH  087%=      5-min Rain = 0
KLE1 150344Z 23004KT 01/M01 A3015 RMK A01 T00051014  RH  087%=      5-min Rain = 0
KLE1 150345Z 24004KT 01/M01 A3015 RMK A01 T00051014  RH  087%=      5-min Rain = 0
KLE1 150346Z 26003KT 01/M01 A3015 RMK A01 T00051014  RH  087%=      5-min Rain = 0
KLE1 150347Z 29002KT 01/M01 A3015 RMK A01 T00061013  RH  087%=      5-min Rain = 0
KLE1 150348Z 31003KT 01/M01 A3015 RMK A01 T00061013  RH  087%=      5-min Rain = 0
KLE1 150349Z 31002KT 01/M02 A3015 RMK A01 T00051016  RH  086%=      5-min Rain = 0
KLE1 150350Z 32002KT 00/M02 A3015 RMK A01 T00021020  RH  085%=      5-min Rain = 0
KLE1 150351Z 33004KT 00/02 A3015 RMK A01 T00000-20  RH  087%=      5-min Rain = 0
KLE1 150352Z 33003KT M00/M02 A3015 RMK A01 T10011020  RH  087%=      5-min Rain = 0
KLE1 150353Z 33002KT M00/M02 A3015 RMK A01 T10021020  RH  088%=      5-min Rain = 0
KLE1 150354Z 30002KT M00/M02 A3015 RMK A01 T10031019  RH  089%=      5-min Rain = 0
KLE1 150355Z 31003KT M00/M02 A3015 RMK A01 T10031019  RH  089%=      5-min Rain = 0
KLE1 150356Z 31005KT M00/M02 A3015 RMK A01 T10031017  RH  090%=      5-min Rain = 0
KLE1 150357Z 31005KT M00/M02 A3015 RMK A01 T10021017  RH  090%=      5-min Rain = 0
KLE1 150358Z 30004KT M00/M02 A3015 RMK A01 T10021018  RH  089%=      5-min Rain = 0
KLE1 150359Z 30003KT M00/M02 A3015 RMK A01 T10021018  RH  089%=      5-min Rain = 0
KLE1 150400Z 30003KT M00/M02 A3015 RMK A01 T10011016  RH  090%=      5-min Rain = 0
KLE1 150401Z 30004KT 00/02 A3015 RMK A01 T00-00-16  RH  089%=      5-min Rain = 0
KLE1 150402Z 30004KT 00/02 A3015 RMK A01 T00-00-16  RH  089%=      5-min Rain = 0
KLE1 150403Z 30003KT 00/M02 A3015 RMK A01 T00011015  RH  089%=      5-min Rain = 0
KLE1 150404Z 27002KT 00/M02 A3015 RMK A01 T00011016  RH  089%=      5-min Rain = 0
KLE1 150405Z 28003KT 00/M02 A3015 RMK A01 T00011016  RH  089%=      5-min Rain = 0
KLE1 150406Z 30004KT 00/M01 A3015 RMK A01 T00021014  RH  089%=      5-min Rain = 0
KLE1 150407Z 29004KT 01/M01 A3015 RMK A01 T00051011  RH  089%=      5-min Rain = 0
KLE1 150408Z 30004KT 01/M01 A3015 RMK A01 T00071010  RH  088%=      5-min Rain = 0
KLE1 150409Z 30004KT 01/M01 A3015 RMK A01 T00081012  RH  087%=      5-min Rain = 0
KLE1 150410Z 31004KT 01/M01 A3015 RMK A01 T00071014  RH  086%=      5-min Rain = 0
KLE1 150411Z 29004KT 01/M02 A3015 RMK A01 T00051016  RH  086%=      5-min Rain = 0
KLE1 150412Z 29005KT 00/M02 A3015 RMK A01 T00041016  RH  087%=      5-min Rain = 0
KLE1 150413Z 29005KT 00/M02 A3015 RMK A01 T00041015  RH  087%=      5-min Rain = 0
KLE1 150414Z 29005KT 00/M02 A3015 RMK A01 T00041015  RH  087%=      5-min Rain = 0
KLE1 150415Z 28004KT 01/M01 A3015 RMK A01 T00051013  RH  088%=      5-min Rain = 0
KLE1 150416Z 30003KT 01/M01 A3015 RMK A01 T00081011  RH  087%=      5-min Rain = 0
KLE1 150417Z 30004KT 01/M01 A3015 RMK A01 T00081012  RH  086%=      5-min Rain = 0
KLE1 150418Z 30005KT 01/M01 A3015 RMK A01 T00081013  RH  086%=      5-min Rain = 0
KLE1 150419Z 30004KT 01/M01 A3015 RMK A01 T00071014  RH  086%=      5-min Rain = 0
KLE1 150420Z 29004KT 01/M01 A3014 RMK A01 T00071013  RH  086%=      5-min Rain = 0
KLE1 150421Z 30004KT 01/M01 A3014 RMK A01 T00071013  RH  086%=      5-min Rain = 0
KLE1 150422Z 30004KT 01/M01 A3014 RMK A01 T00071013  RH  086%=      5-min Rain = 0
KLE1 150423Z 31004KT 01/M01 A3014 RMK A01 T00081012  RH  086%=      5-min Rain = 0
KLE1 150424Z 30003KT 01/M01 A3014 RMK A01 T00081012  RH  086%=      5-min Rain = 0
KLE1 150425Z 30003KT 01/M01 A3014 RMK A01 T00081013  RH  086%=      5-min Rain = 0
KLE1 150426Z 30004KT 01/M01 A3014 RMK A01 T00081013  RH  086%=      5-min Rain = 0
KLE1 150427Z 31005KT 01/M01 A3014 RMK A01 T00081014  RH  086%=      5-min Rain = 0
KLE1 150428Z 31005KT 01/M01 A3015 RMK A01 T00081013  RH  086%=      5-min Rain = 0
KLE1 150429Z 31005KT 01/M01 A3015 RMK A01 T00071014  RH  086%=      5-min Rain = 0
KLE1 150430Z 30005KT 01/M02 A3015 RMK A01 T00051016  RH  085%=      5-min Rain = 0
KLE1 150431Z 30004KT 01/M02 A3015 RMK A01 T00051016  RH  086%=      5-min Rain = 0
KLE1 150432Z 30004KT 00/M02 A3015 RMK A01 T00041015  RH  087%=      5-min Rain = 0
KLE1 150433Z 30005KT 00/M02 A3015 RMK A01 T00041015  RH  087%=      5-min Rain = 0
KLE1 150434Z 30005KT 00/M01 A3015 RMK A01 T00041014  RH  087%=      5-min Rain = 0
KLE1 150435Z 30005KT 00/M02 A3015 RMK A01 T00041015  RH  087%=      5-min Rain = 0
KLE1 150436Z 29004KT 00/M02 A3015 RMK A01 T00031016  RH  087%=      5-min Rain = 0
KLE1 150437Z 29004KT 00/M02 A3014 RMK A01 T00021016  RH  087%=      5-min Rain = 0
KLE1 150438Z 29005KT 00/M02 A3014 RMK A01 T00021016  RH  088%=      5-min Rain = 0
KLE1 150439Z 29004KT 00/M02 A3014 RMK A01 T00021015  RH  088%=      5-min Rain = 0
KLE1 150440Z 30005KT 00/M02 A3014 RMK A01 T00021015  RH  088%=      5-min Rain = 0
KLE1 150441Z 30005KT 00/M02 A3014 RMK A01 T00031015  RH  088%=      5-min Rain = 0
KLE1 150442Z 31005KT 00/M02 A3014 RMK A01 T00021016  RH  087%=      5-min Rain = 0
KLE1 150443Z 29004KT 00/M02 A3015 RMK A01 T00011018  RH  087%=      5-min Rain = 0
KLE1 150444Z 29004KT 00/02 A3015 RMK A01 T00-00-19  RH  087%=      5-min Rain = 0
KLE1 150445Z 29004KT M00/M02 A3015 RMK A01 T10011019  RH  088%=      5-min Rain = 0
KLE1 150446Z 29005KT M00/M02 A3014 RMK A01 T10021019  RH  088%=      5-min Rain = 0
KLE1 150447Z 30005KT M00/M02 A3014 RMK A01 T10021017  RH  089%=      5-min Rain = 0
KLE1 150448Z 30005KT 00/02 A3014 RMK A01 T00-00-15  RH  090%=      5-min Rain = 0
KLE1 150449Z 31006KT 00/M01 A3014 RMK A01 T00011013  RH  090%=      5-min Rain = 0
KLE1 150450Z 31006KT 00/M01 A3014 RMK A01 T00031012  RH  089%=      5-min Rain = 0
KLE1 150451Z 31006KT 00/M01 A3014 RMK A01 T00041013  RH  088%=      5-min Rain = 0
KLE1 150452Z 31006KT 00/M01 A3014 RMK A01 T00041014  RH  088%=      5-min Rain = 0
KLE1 150453Z 31006KT 00/M02 A3014 RMK A01 T00031015  RH  088%=      5-min Rain = 0
KLE1 150454Z 31006KT 00/M01 A3014 RMK A01 T00031014  RH  088%=      5-min Rain = 0
KLE1 150455Z 32006KT 00/M01 A3014 RMK A01 T00031014  RH  088%=      5-min Rain = 0
KLE1 150456Z 32006KT 00/M01 A3014 RMK A01 T00031014  RH  088%=      5-min Rain = 0
KLE1 150457Z 32006KT 00/M02 A3014 RMK A01 T00021015  RH  088%=      5-min Rain = 0
KLE1 150458Z 32007KT 00/M02 A3014 RMK A01 T00021015  RH  088%=      5-min Rain = 0
KLE1 150459Z 32007KT 00/M02 A3014 RMK A01 T00011016  RH  088%=      5-min Rain = 0
KLE1 150500Z 32007KT 00/M02 A3014 RMK A01 T00011016  RH  088%=      5-min Rain = 0
KLE1 150501Z 32007KT 00/02 A3014 RMK A01 T00000-16  RH  089%=      5-min Rain = 0
KLE1 150502Z 32007KT 00/02 A3014 RMK A01 T00-00-16  RH  089%=      5-min Rain = 0
KLE1 150503Z 32007KT 00/02 A3014 RMK A01 T00-00-16  RH  089%=      5-min Rain = 0
KLE1 150504Z 32007KT 00/02 A3014 RMK A01 T00-00-16  RH  089%=      5-min Rain = 0
KLE1 150505Z 32007KT 00/02 A3014 RMK A01 T00-00-15  RH  090%=      5-min Rain = 0
KLE1 150506Z 32008KT 00/02 A3014 RMK A01 T00000-15  RH  090%=      5-min Rain = 0
KLE1 150507Z 32008KT 00/M01 A3013 RMK A01 T00011014  RH  090%=      5-min Rain = 0
KLE1 150508Z 32008KT 00/M01 A3013 RMK A01 T00011014  RH  090%=      5-min Rain = 0
KLE1 150509Z 32007KT 00/M01 A3013 RMK A01 T00011014  RH  089%=      5-min Rain = 0
KLE1 150510Z 31007KT 00/M01 A3013 RMK A01 T00011014  RH  090%=      5-min Rain = 0
KLE1 150511Z 31007KT 00/M01 A3014 RMK A01 T00011014  RH  090%=      5-min Rain = 0
KLE1 150512Z 31007KT 00/M01 A3013 RMK A01 T00011014  RH  090%=      5-min Rain = 0
KLE1 150513Z 31007KT 00/M01 A3013 RMK A01 T00021013  RH  090%=      5-min Rain = 0
KLE1 150514Z 31007KT 00/M01 A3013 RMK A01 T00021013  RH  090%=      5-min Rain = 0
KLE1 150515Z 32006KT 00/M01 A3013 RMK A01 T00021013  RH  090%=      5-min Rain = 0
KLE1 150516Z 31007KT 00/M01 A3013 RMK A01 T00021012  RH  090%=      5-min Rain = 0
KLE1 150517Z 31006KT 00/M01 A3013 RMK A01 T00031012  RH  090%=      5-min Rain = 0
KLE1 150518Z 31007KT 00/M01 A3013 RMK A01 T00031012  RH  090%=      5-min Rain = 0
KLE1 150519Z 31007KT 00/M01 A3013 RMK A01 T00031012  RH  089%=      5-min Rain = 0
KLE1 150520Z 31007KT 00/M01 A3013 RMK A01 T00031013  RH  089%=      5-min Rain = 0
KLE1 150521Z 31006KT 00/M01 A3013 RMK A01 T00021013  RH  089%=      5-min Rain = 0
KLE1 150522Z 31006KT 00/M01 A3013 RMK A01 T00021013  RH  089%=      5-min Rain = 0
KLE1 150523Z 32006KT 00/M01 A3013 RMK A01 T00021013  RH  090%=      5-min Rain = 0
KLE1 150524Z 32006KT 00/M01 A3013 RMK A01 T00021012  RH  090%=      5-min Rain = 0
KLE1 150525Z 32006KT 00/M01 A3013 RMK A01 T00031011  RH  090%=      5-min Rain = 0
KLE1 150526Z 32006KT 00/M01 A3013 RMK A01 T00031011  RH  090%=      5-min Rain = 0
KLE1 150527Z 32006KT 00/M01 A3013 RMK A01 T00031011  RH  090%=      5-min Rain = 0
KLE1 150528Z 32006KT 00/M01 A3013 RMK A01 T00041010  RH  090%=      5-min Rain = 0
KLE1 150529Z 32006KT 01/M01 A3013 RMK A01 T00051010  RH  090%=      5-min Rain = 0
KLE1 150530Z 32006KT 01/M01 A3013 RMK A01 T00051010  RH  090%=      5-min Rain = 0
KLE1 150531Z 32006KT 01/M01 A3013 RMK A01 T00051010  RH  090%=      5-min Rain = 0
KLE1 150532Z 32006KT 01/M01 A3013 RMK A01 T00051011  RH  089%=      5-min Rain = 0
KLE1 150533Z 32006KT 00/M01 A3013 RMK A01 T00041012  RH  089%=      5-min Rain = 0
KLE1 150534Z 32006KT 00/M01 A3013 RMK A01 T00041012  RH  089%=      5-min Rain = 0
KLE1 150535Z 32006KT 00/M01 A3013 RMK A01 T00041011  RH  090%=      5-min Rain = 0
KLE1 150536Z 32006KT 00/M01 A3013 RMK A01 T00041011  RH  090%=      5-min Rain = 0
KLE1 150537Z 33006KT 00/M01 A3013 RMK A01 T00031011  RH  090%=      5-min Rain = 0
KLE1 150538Z 33006KT 00/M01 A3013 RMK A01 T00041010  RH  090%=      5-min Rain = 0
KLE1 150539Z 33006KT 00/M01 A3013 RMK A01 T00041010  RH  090%=      5-min Rain = 0
KLE1 150540Z 33007KT 00/M01 A3012 RMK A01 T00041010  RH  090%=      5-min Rain = 0
KLE1 150541Z 33006KT 00/M01 A3012 RMK A01 T00041010  RH  091%=      5-min Rain = 0
KLE1 150542Z 33007KT 00/M01 A3012 RMK A01 T00041009  RH  091%=      5-min Rain = 0
KLE1 150543Z 33007KT 01/M01 A3012 RMK A01 T00051009  RH  091%=      5-min Rain = 0
KLE1 150544Z 33006KT 00/M01 A3012 RMK A01 T00041010  RH  090%=      5-min Rain = 0
KLE1 150545Z 32006KT 00/M01 A3012 RMK A01 T00041011  RH  090%=      5-min Rain = 0
KLE1 150546Z 32006KT 00/M01 A3012 RMK A01 T00031011  RH  090%=      5-min Rain = 0
KLE1 150547Z 32006KT 00/M01 A3012 RMK A01 T00031010  RH  091%=      5-min Rain = 0
KLE1 150548Z 33006KT 00/M01 A3012 RMK A01 T00031010  RH  091%=      5-min Rain = 0
KLE1 150549Z 32007KT 00/M01 A3012 RMK A01 T00041010  RH  091%=      5-min Rain = 0
KLE1 150550Z 32007KT 00/M01 A3012 RMK A01 T00031010  RH  091%=      5-min Rain = 0
KLE1 150551Z 32007KT 00/M01 A3012 RMK A01 T00031010  RH  091%=      5-min Rain = 0
KLE1 150552Z 32007KT 00/M01 A3012 RMK A01 T00021011  RH  091%=      5-min Rain = 0
KLE1 150553Z 32006KT 00/M01 A3012 RMK A01 T00021011  RH  091%=      5-min Rain = 0
KLE1 150554Z 31007KT 00/M01 A3012 RMK A01 T00021010  RH  091%=      5-min Rain = 0
KLE1 150555Z 31007KT 00/M01 A3012 RMK A01 T00021010  RH  092%=      5-min Rain = 0
KLE1 150556Z 31006KT 00/M01 A3012 RMK A01 T00031009  RH  092%=      5-min Rain = 0
KLE1 150557Z 31007KT 00/M01 A3012 RMK A01 T00031010  RH  091%=      5-min Rain = 0
KLE1 150558Z 31006KT 00/M01 A3012 RMK A01 T00021010  RH  091%=      5-min Rain = 0
KLE1 150559Z 31005KT 00/M01 A3012 RMK A01 T00031009  RH  092%=      5-min Rain = 0

Page generated in 0.1445 seconds.